| time (UTC) | temp C | wind direction | speed KPH | gust KPH | rain 1hr cm | rain 24hr cm | rain mn cm | humidity % | barometer mb |
| 20260504003643 | 26 | 91 | 8.0 | 17.7 | 0.00 | 0.00 | 0.00 | 40 | 945.7 |
| 20260504003542 | 26 | 151 | 8.0 | 17.7 | 0.00 | 0.00 | 0.00 | 40 | 945.6 |
| 20260504003443 | 26 | 118 | 8.0 | 17.7 | 0.00 | 0.00 | 0.00 | 40 | 945.6 |
| 20260504003342 | 27 | 68 | 8.0 | 17.7 | 0.00 | 0.00 | 0.00 | 40 | 945.6 |
| 20260504003243 | 27 | 64 | 8.0 | 17.7 | 0.00 | 0.00 | 0.00 | 40 | 945.6 |
| 20260504003143 | 27 | 79 | 8.0 | 17.7 | 0.00 | 0.00 | 0.00 | 40 | 945.6 |
| 20260504003043 | 27 | 69 | 8.0 | 17.7 | 0.00 | 0.00 | 0.00 | 40 | 945.6 |
| 20260504002943 | 27 | 76 | 8.0 | 17.7 | 0.00 | 0.00 | 0.00 | 40 | 945.6 |
| 20260504002843 | 27 | 99 | 8.0 | 17.7 | 0.00 | 0.00 | 0.00 | 40 | 945.6 |
| 20260504002743 | 27 | 75 | 8.0 | 16.1 | 0.00 | 0.00 | 0.00 | 40 | 945.7 |
| 20260504002643 | 27 | 74 | 8.0 | 16.1 | 0.00 | 0.00 | 0.00 | 40 | 945.6 |
| 20260504002543 | 27 | 134 | 8.0 | 16.1 | 0.00 | 0.00 | 0.00 | 40 | 945.6 |
| 20260504002443 | 27 | 95 | 8.0 | 16.1 | 0.00 | 0.00 | 0.00 | 40 | 945.6 |
| 20260504002343 | 27 | 55 | 8.0 | 16.1 | 0.00 | 0.00 | 0.00 | 40 | 945.6 |
| 20260504002244 | 27 | 54 | 8.0 | 16.1 | 0.00 | 0.00 | 0.00 | 40 | 945.7 |
| 20260504002143 | 27 | 77 | 8.0 | 16.1 | 0.00 | 0.00 | 0.00 | 40 | 945.7 |
| 20260504002043 | 27 | 116 | 8.0 | 16.1 | 0.00 | 0.00 | 0.00 | 40 | 945.7 |
| 20260504001943 | 27 | 69 | 8.0 | 16.1 | 0.00 | 0.00 | 0.00 | 40 | 945.7 |
| 20260504001843 | 27 | 91 | 8.0 | 16.1 | 0.00 | 0.00 | 0.00 | 40 | 945.7 |
| 20260504001743 | 27 | 102 | 8.0 | 16.1 | 0.00 | 0.00 | 0.00 | 40 | 945.6 |
| 20260504001643 | 27 | 72 | 8.0 | 16.1 | 0.00 | 0.00 | 0.00 | 39 | 945.6 |
| 20260504001543 | 27 | 85 | 8.0 | 17.7 | 0.00 | 0.00 | 0.00 | 39 | 945.6 |
| 20260504001443 | 27 | 146 | 8.0 | 17.7 | 0.00 | 0.00 | 0.00 | 39 | 945.6 |
| 20260504001342 | 27 | 43 | 8.0 | 17.7 | 0.00 | 0.00 | 0.00 | 39 | 945.5 |
| 20260504001242 | 27 | 126 | 6.4 | 17.7 | 0.00 | 0.00 | 0.00 | 39 | 945.6 |
| 20260504001141 | 27 | 78 | 8.0 | 17.7 | 0.00 | 0.00 | 0.00 | 39 | 945.5 |
| 20260504001037 | 27 | 114 | 8.0 | 17.7 | 0.00 | 0.00 | 0.00 | 39 | 945.6 |
| 20260504000938 | 27 | 52 | 6.4 | 17.7 | 0.00 | 0.00 | 0.00 | 39 | 945.6 |
| 20260504000836 | 27 | 70 | 8.0 | 17.7 | 0.00 | 0.00 | 0.00 | 39 | 945.6 |
| 20260504000732 | 27 | 108 | 8.0 | 17.7 | 0.00 | 0.00 | 0.00 | 39 | 945.6 |
| 20260504000630 | 27 | 97 | 8.0 | 17.7 | 0.00 | 0.00 | 0.00 | 39 | 945.6 |
| 20260504000530 | 27 | 140 | 8.0 | 16.1 | 0.00 | 0.00 | 0.00 | 39 | 945.6 |
| 20260504000431 | 27 | 140 | 8.0 | 16.1 | 0.00 | 0.00 | 0.00 | 39 | 945.6 |
| 20260504000329 | 27 | 138 | 8.0 | 16.1 | 0.00 | 0.00 | 0.00 | 39 | 945.5 |
| 20260504000230 | 27 | 72 | 8.0 | 16.1 | 0.00 | 0.00 | 0.00 | 39 | 945.6 |
| 20260504000130 | 27 | 71 | 8.0 | 16.1 | 0.00 | 0.00 | 0.00 | 39 | 945.5 |
| 20260504000029 | 27 | 148 | 8.0 | 17.7 | 0.00 | 0.00 | 0.00 | 39 | 945.6 |
| 20260503235926 | 27 | 80 | 9.7 | 19.3 | 0.00 | 0.00 | 0.00 | 39 | 945.6 |
| 20260503235826 | 27 | 119 | 9.7 | 19.3 | 0.00 | 0.00 | 0.00 | 39 | 945.6 |
| 20260503235725 | 27 | 75 | 9.7 | 19.3 | 0.00 | 0.00 | 0.00 | 40 | 945.6 |
| 20260503235626 | 27 | 82 | 9.7 | 19.3 | 0.00 | 0.00 | 0.00 | 39 | 945.5 |
| 20260503235526 | 27 | 86 | 9.7 | 19.3 | 0.00 | 0.00 | 0.00 | 39 | 945.5 |
| 20260503235425 | 27 | 117 | 9.7 | 19.3 | 0.00 | 0.00 | 0.00 | 39 | 945.5 |
| 20260503235326 | 27 | 126 | 9.7 | 19.3 | 0.00 | 0.00 | 0.00 | 39 | 945.5 |
| 20260503235226 | 27 | 114 | 9.7 | 19.3 | 0.00 | 0.00 | 0.00 | 39 | 945.6 |
| 20260503235125 | 27 | 109 | 9.7 | 19.3 | 0.00 | 0.00 | 0.00 | 40 | 945.6 |
| 20260503235026 | 27 | 122 | 9.7 | 19.3 | 0.00 | 0.00 | 0.00 | 39 | 945.6 |
| 20260503234925 | 27 | 117 | 9.7 | 19.3 | 0.00 | 0.00 | 0.00 | 39 | 945.6 |
| 20260503234826 | 27 | 117 | 8.0 | 19.3 | 0.00 | 0.00 | 0.00 | 39 | 945.6 |
| 20260503234726 | 27 | 118 | 9.7 | 19.3 | 0.00 | 0.00 | 0.00 | 39 | 945.6 |
| 20260503234626 | 27 | 87 | 9.7 | 19.3 | 0.00 | 0.00 | 0.00 | 39 | 945.6 |
| 20260503234526 | 27 | 103 | 9.7 | 19.3 | 0.00 | 0.00 | 0.00 | 39 | 945.6 |
| 20260503234427 | 27 | 58 | 8.0 | 19.3 | 0.00 | 0.00 | 0.00 | 39 | 945.6 |
| 20260503234326 | 27 | 155 | 9.7 | 19.3 | 0.00 | 0.00 | 0.00 | 39 | 945.5 |
| 20260503234226 | 27 | 56 | 9.7 | 19.3 | 0.00 | 0.00 | 0.00 | 39 | 945.5 |
| 20260503234127 | 27 | 190 | 9.7 | 19.3 | 0.00 | 0.00 | 0.00 | 39 | 945.6 |
| 20260503234026 | 27 | 82 | 9.7 | 19.3 | 0.00 | 0.00 | 0.00 | 39 | 945.5 |
| 20260503233926 | 27 | 115 | 9.7 | 19.3 | 0.00 | 0.00 | 0.00 | 39 | 945.5 |
| 20260503233826 | 27 | 75 | 9.7 | 19.3 | 0.00 | 0.00 | 0.00 | 39 | 945.5 |
| 20260503233726 | 27 | 78 | 9.7 | 17.7 | 0.00 | 0.00 | 0.00 | 39 | 945.5 |
| 20260503233626 | 27 | 101 | 9.7 | 17.7 | 0.00 | 0.00 | 0.00 | 39 | 945.5 |
| 20260503233525 | 27 | 71 | 9.7 | 17.7 | 0.00 | 0.00 | 0.00 | 39 | 945.5 |
| 20260503233425 | 27 | 96 | 9.7 | 17.7 | 0.00 | 0.00 | 0.00 | 39 | 945.6 |
| 20260503233326 | 27 | 87 | 9.7 | 17.7 | 0.00 | 0.00 | 0.00 | 39 | 945.6 |
| 20260503233226 | 27 | 123 | 9.7 | 17.7 | 0.00 | 0.00 | 0.00 | 39 | 945.6 |
| 20260503233127 | 27 | 80 | 9.7 | 17.7 | 0.00 | 0.00 | 0.00 | 39 | 945.6 |
| 20260503233026 | 27 | 100 | 9.7 | 17.7 | 0.00 | 0.00 | 0.00 | 39 | 945.6 |
| 20260503232927 | 27 | 89 | 8.0 | 17.7 | 0.00 | 0.00 | 0.00 | 39 | 945.5 |
| 20260503232826 | 27 | 135 | 8.0 | 14.5 | 0.00 | 0.00 | 0.00 | 39 | 945.6 |
| 20260503232726 | 27 | 98 | 8.0 | 14.5 | 0.00 | 0.00 | 0.00 | 39 | 945.5 |
| 20260503232627 | 27 | 73 | 6.4 | 14.5 | 0.00 | 0.00 | 0.00 | 39 | 945.5 |
| 20260503232526 | 27 | 112 | 6.4 | 14.5 | 0.00 | 0.00 | 0.00 | 39 | 945.5 |
| 20260503232427 | 27 | 67 | 6.4 | 14.5 | 0.00 | 0.00 | 0.00 | 39 | 945.5 |
| 20260503232326 | 27 | 131 | 6.4 | 14.5 | 0.00 | 0.00 | 0.00 | 39 | 945.5 |
| 20260503232227 | 27 | 114 | 6.4 | 14.5 | 0.00 | 0.00 | 0.00 | 39 | 945.5 |
| 20260503232126 | 27 | 112 | 6.4 | 16.1 | 0.00 | 0.00 | 0.00 | 39 | 945.5 |
| 20260503232026 | 27 | 118 | 6.4 | 16.1 | 0.00 | 0.00 | 0.00 | 39 | 945.6 |
| 20260503231925 | 27 | 107 | 6.4 | 16.1 | 0.00 | 0.00 | 0.00 | 39 | 945.5 |
| 20260503231825 | 27 | 81 | 6.4 | 16.1 | 0.00 | 0.00 | 0.00 | 39 | 945.5 |
| 20260503231724 | 27 | 154 | 8.0 | 16.1 | 0.00 | 0.00 | 0.00 | 39 | 945.6 |
| 20260503231625 | 27 | 102 | 8.0 | 16.1 | 0.00 | 0.00 | 0.00 | 39 | 945.5 |
| 20260503231525 | 27 | 70 | 8.0 | 16.1 | 0.00 | 0.00 | 0.00 | 38 | 945.5 |
| 20260503231425 | 27 | 72 | 8.0 | 16.1 | 0.00 | 0.00 | 0.00 | 39 | 945.5 |
| 20260503231321 | 27 | 145 | 8.0 | 16.1 | 0.00 | 0.00 | 0.00 | 39 | 945.6 |
| 20260503231220 | 27 | 91 | 8.0 | 16.1 | 0.00 | 0.00 | 0.00 | 39 | 945.6 |
| 20260503231119 | 27 | 119 | 8.0 | 16.1 | 0.00 | 0.00 | 0.00 | 39 | 945.5 |
| 20260503231015 | 27 | 66 | 6.4 | 14.5 | 0.00 | 0.00 | 0.00 | 39 | 945.5 |
| 20260503230914 | 27 | 79 | 8.0 | 14.5 | 0.00 | 0.00 | 0.00 | 39 | 945.5 |
| 20260503230815 | 27 | 129 | 8.0 | 14.5 | 0.00 | 0.00 | 0.00 | 39 | 945.5 |
| 20260503230714 | 27 | 65 | 8.0 | 14.5 | 0.00 | 0.00 | 0.00 | 39 | 945.5 |
| 20260503230615 | 27 | 56 | 6.4 | 14.5 | 0.00 | 0.00 | 0.00 | 39 | 945.6 |
| 20260503230515 | 27 | 126 | 8.0 | 14.5 | 0.00 | 0.00 | 0.00 | 39 | 945.5 |
| 20260503230415 | 27 | 120 | 8.0 | 14.5 | 0.00 | 0.00 | 0.00 | 39 | 945.6 |
| 20260503230315 | 27 | 135 | 8.0 | 14.5 | 0.00 | 0.00 | 0.00 | 39 | 945.6 |
| 20260503230214 | 27 | 109 | 8.0 | 17.7 | 0.00 | 0.00 | 0.00 | 39 | 945.6 |
| 20260503230115 | 27 | 49 | 8.0 | 17.7 | 0.00 | 0.00 | 0.00 | 39 | 945.6 |
| 20260503230014 | 27 | 91 | 8.0 | 17.7 | 0.00 | 0.00 | 0.00 | 39 | 945.6 |
| 20260503225915 | 27 | 75 | 8.0 | 17.7 | 0.00 | 0.00 | 0.00 | 39 | 945.6 |
| 20260503225814 | 27 | 102 | 8.0 | 17.7 | 0.00 | 0.00 | 0.00 | 39 | 945.6 |
| 20260503225715 | 27 | 117 | 8.0 | 17.7 | 0.00 | 0.00 | 0.00 | 40 | 945.6 |
| 20260503225615 | 27 | 93 | 8.0 | 17.7 | 0.00 | 0.00 | 0.00 | 39 | 945.6 |
| 20260503225514 | 27 | 117 | 8.0 | 17.7 | 0.00 | 0.00 | 0.00 | 40 | 945.6 |
| 20260503225415 | 27 | 121 | 8.0 | 17.7 | 0.00 | 0.00 | 0.00 | 39 | 945.6 |
| 20260503225315 | 27 | 130 | 8.0 | 17.7 | 0.00 | 0.00 | 0.00 | 39 | 945.6 |
| 20260503225215 | 27 | 122 | 8.0 | 16.1 | 0.00 | 0.00 | 0.00 | 39 | 945.6 |
| 20260503225115 | 27 | 86 | 8.0 | 16.1 | 0.00 | 0.00 | 0.00 | 40 | 945.6 |
| 20260503225014 | 27 | 95 | 8.0 | 16.1 | 0.00 | 0.00 | 0.00 | 40 | 945.6 |
| 20260503224915 | 27 | 77 | 8.0 | 16.1 | 0.00 | 0.00 | 0.00 | 40 | 945.6 |
| 20260503224814 | 27 | 27 | 8.0 | 16.1 | 0.00 | 0.00 | 0.00 | 39 | 945.6 |
| 20260503224715 | 27 | 67 | 8.0 | 16.1 | 0.00 | 0.00 | 0.00 | 39 | 945.6 |
| 20260503224615 | 27 | 54 | 8.0 | 16.1 | 0.00 | 0.00 | 0.00 | 39 | 945.6 |
| 20260503224515 | 27 | 82 | 8.0 | 16.1 | 0.00 | 0.00 | 0.00 | 39 | 945.6 |
| 20260503224414 | 27 | 59 | 8.0 | 14.5 | 0.00 | 0.00 | 0.00 | 39 | 945.6 |
| 20260503224315 | 27 | 52 | 8.0 | 14.5 | 0.00 | 0.00 | 0.00 | 40 | 945.6 |
| 20260503224215 | 27 | 86 | 8.0 | 14.5 | 0.00 | 0.00 | 0.00 | 39 | 945.6 |
| 20260503224115 | 27 | 90 | 8.0 | 14.5 | 0.00 | 0.00 | 0.00 | 39 | 945.7 |
| 20260503224015 | 27 | 101 | 8.0 | 14.5 | 0.00 | 0.00 | 0.00 | 40 | 945.6 |
| 20260503223915 | 27 | 103 | 8.0 | 14.5 | 0.00 | 0.00 | 0.00 | 40 | 945.6 |
| 20260503223815 | 27 | 79 | 8.0 | 14.5 | 0.00 | 0.00 | 0.00 | 40 | 945.6 |
| 20260503223715 | 27 | 123 | 8.0 | 14.5 | 0.00 | 0.00 | 0.00 | 40 | 945.6 |
| 20260503223615 | 27 | 68 | 8.0 | 16.1 | 0.00 | 0.00 | 0.00 | 40 | 945.7 |
| 20260503223515 | 27 | 70 | 8.0 | 16.1 | 0.00 | 0.00 | 0.00 | 40 | 945.7 |
| 20260503223415 | 27 | 100 | 8.0 | 16.1 | 0.00 | 0.00 | 0.00 | 40 | 945.7 |
| 20260503223315 | 27 | 113 | 8.0 | 16.1 | 0.00 | 0.00 | 0.00 | 40 | 945.7 |
| 20260503223216 | 27 | 147 | 8.0 | 16.1 | 0.00 | 0.00 | 0.00 | 40 | 945.7 |
| 20260503223115 | 27 | 109 | 8.0 | 16.1 | 0.00 | 0.00 | 0.00 | 39 | 945.8 |
| 20260503223015 | 27 | 77 | 8.0 | 16.1 | 0.00 | 0.00 | 0.00 | 40 | 945.7 |
| 20260503222915 | 27 | 66 | 8.0 | 16.1 | 0.00 | 0.00 | 0.00 | 40 | 945.7 |
| 20260503222814 | 27 | 102 | 8.0 | 16.1 | 0.00 | 0.00 | 0.00 | 40 | 945.7 |
| 20260503222716 | 27 | 36 | 8.0 | 16.1 | 0.00 | 0.00 | 0.00 | 40 | 945.7 |
| 20260503222615 | 27 | 72 | 8.0 | 14.5 | 0.00 | 0.00 | 0.00 | 40 | 945.7 |
| 20260503222516 | 27 | 112 | 8.0 | 12.9 | 0.00 | 0.00 | 0.00 | 40 | 945.7 |
| 20260503222415 | 27 | 78 | 6.4 | 12.9 | 0.00 | 0.00 | 0.00 | 40 | 945.7 |
| 20260503222316 | 27 | 163 | 6.4 | 12.9 | 0.00 | 0.00 | 0.00 | 40 | 945.7 |
| 20260503222215 | 27 | 75 | 6.4 | 12.9 | 0.00 | 0.00 | 0.00 | 40 | 945.7 |
| 20260503222115 | 27 | 92 | 4.8 | 12.9 | 0.00 | 0.00 | 0.00 | 40 | 945.7 |
| 20260503222016 | 27 | 82 | 4.8 | 12.9 | 0.00 | 0.00 | 0.00 | 39 | 945.7 |
| 20260503221915 | 27 | 55 | 4.8 | 12.9 | 0.00 | 0.00 | 0.00 | 39 | 945.8 |
| 20260503221816 | 27 | 116 | 4.8 | 12.9 | 0.00 | 0.00 | 0.00 | 39 | 945.8 |
| 20260503221715 | 27 | 94 | 4.8 | 12.9 | 0.00 | 0.00 | 0.00 | 40 | 945.8 |
| 20260503221615 | 27 | 85 | 6.4 | 12.9 | 0.00 | 0.00 | 0.00 | 40 | 945.8 |
| 20260503221515 | 27 | 92 | 6.4 | 14.5 | 0.00 | 0.00 | 0.00 | 40 | 945.8 |
| 20260503221413 | 27 | 104 | 6.4 | 14.5 | 0.00 | 0.00 | 0.00 | 40 | 945.9 |
| 20260503221313 | 27 | 111 | 6.4 | 14.5 | 0.00 | 0.00 | 0.00 | 41 | 945.9 |
| 20260503221214 | 27 | 115 | 8.0 | 14.5 | 0.00 | 0.00 | 0.00 | 40 | 945.9 |
| 20260503221114 | 27 | 126 | 8.0 | 16.1 | 0.00 | 0.00 | 0.00 | 40 | 946.0 |
| 20260503221014 | 27 | 154 | 8.0 | 16.1 | 0.00 | 0.00 | 0.00 | 40 | 946.0 |
| 20260503220914 | 27 | 121 | 9.7 | 16.1 | 0.00 | 0.00 | 0.00 | 40 | 946.0 |
| 20260503220814 | 27 | 50 | 9.7 | 16.1 | 0.00 | 0.00 | 0.00 | 40 | 946.0 |
| 20260503220714 | 27 | 106 | 9.7 | 16.1 | 0.00 | 0.00 | 0.00 | 41 | 946.0 |
| 20260503220613 | 27 | 98 | 9.7 | 16.1 | 0.00 | 0.00 | 0.00 | 40 | 946.0 |
| 20260503220514 | 27 | 127 | 9.7 | 16.1 | 0.00 | 0.00 | 0.00 | 40 | 946.0 |
| 20260503220414 | 27 | 75 | 9.7 | 16.1 | 0.00 | 0.00 | 0.00 | 40 | 946.0 |
| 20260503220314 | 27 | 164 | 8.0 | 16.1 | 0.00 | 0.00 | 0.00 | 41 | 946.1 |
| 20260503220214 | 27 | 105 | 8.0 | 16.1 | 0.00 | 0.00 | 0.00 | 41 | 946.0 |
| 20260503220114 | 27 | 142 | 8.0 | 16.1 | 0.00 | 0.00 | 0.00 | 41 | 946.1 |
| 20260503220014 | 27 | 139 | 6.4 | 12.9 | 0.00 | 0.00 | 0.00 | 40 | 946.1 |
| 20260503215915 | 26 | 137 | 6.4 | 14.5 | 0.00 | 0.00 | 0.00 | 40 | 946.1 |
| 20260503215814 | 26 | 93 | 6.4 | 14.5 | 0.00 | 0.00 | 0.00 | 40 | 946.2 |
| 20260503215714 | 26 | 96 | 6.4 | 14.5 | 0.00 | 0.00 | 0.00 | 41 | 946.2 |
| 20260503215615 | 26 | 34 | 6.4 | 14.5 | 0.00 | 0.00 | 0.00 | 41 | 946.2 |
| 20260503215514 | 27 | 29 | 6.4 | 14.5 | 0.00 | 0.00 | 0.00 | 41 | 946.2 |
| 20260503215414 | 27 | 108 | 6.4 | 14.5 | 0.00 | 0.00 | 0.00 | 40 | 946.3 |
| 20260503215314 | 27 | 32 | 6.4 | 14.5 | 0.00 | 0.00 | 0.00 | 40 | 946.3 |
| 20260503215214 | 26 | 31 | 6.4 | 16.1 | 0.00 | 0.00 | 0.00 | 40 | 946.3 |
| 20260503215113 | 26 | 0 | 8.0 | 16.1 | 0.00 | 0.00 | 0.00 | 41 | 946.4 |
| 20260503215014 | 26 | 27 | 8.0 | 16.1 | 0.00 | 0.00 | 0.00 | 41 | 946.4 |
| 20260503214915 | 27 | 66 | 8.0 | 16.1 | 0.00 | 0.00 | 0.00 | 41 | 946.4 |
| 20260503214815 | 27 | 79 | 6.4 | 16.1 | 0.00 | 0.00 | 0.00 | 41 | 946.5 |
| 20260503214714 | 27 | 109 | 6.4 | 16.1 | 0.00 | 0.00 | 0.00 | 41 | 946.5 |
| 20260503214614 | 27 | 95 | 6.4 | 16.1 | 0.00 | 0.00 | 0.00 | 41 | 946.5 |
| 20260503214514 | 27 | 54 | 6.4 | 16.1 | 0.00 | 0.00 | 0.00 | 41 | 946.5 |
| 20260503214415 | 27 | 34 | 6.4 | 16.1 | 0.00 | 0.00 | 0.00 | 41 | 946.5 |
| 20260503214314 | 27 | 51 | 6.4 | 16.1 | 0.00 | 0.00 | 0.00 | 40 | 946.5 |
| 20260503214214 | 27 | 71 | 4.8 | 16.1 | 0.00 | 0.00 | 0.00 | 41 | 946.5 |
| 20260503214115 | 27 | 53 | 4.8 | 11.3 | 0.00 | 0.00 | 0.00 | 41 | 946.5 |
| 20260503214014 | 27 | 90 | 4.8 | 11.3 | 0.00 | 0.00 | 0.00 | 41 | 946.5 |
| 20260503213915 | 27 | 24 | 3.2 | 11.3 | 0.00 | 0.00 | 0.00 | 41 | 946.5 |
| 20260503213814 | 27 | 89 | 3.2 | 11.3 | 0.00 | 0.00 | 0.00 | 41 | 946.6 |
| 20260503213714 | 27 | 62 | 3.2 | 9.7 | 0.00 | 0.00 | 0.00 | 41 | 946.7 |
| 20260503213614 | 27 | 105 | 3.2 | 9.7 | 0.00 | 0.00 | 0.00 | 40 | 946.7 |
| 20260503213514 | 27 | 70 | 3.2 | 8.0 | 0.00 | 0.00 | 0.00 | 40 | 946.7 |
| 20260503213414 | 27 | 0 | 3.2 | 9.7 | 0.00 | 0.00 | 0.00 | 40 | 946.7 |
| 20260503213315 | 27 | 354 | 3.2 | 9.7 | 0.00 | 0.00 | 0.00 | 40 | 946.7 |
| 20260503213215 | 27 | 285 | 3.2 | 9.7 | 0.00 | 0.00 | 0.00 | 40 | 946.8 |
| 20260503213114 | 27 | 310 | 3.2 | 12.9 | 0.00 | 0.00 | 0.00 | 40 | 946.8 |
| 20260503213014 | 26 | 341 | 4.8 | 12.9 | 0.00 | 0.00 | 0.00 | 41 | 946.9 |
| 20260503212910 | 26 | 219 | 4.8 | 12.9 | 0.00 | 0.00 | 0.00 | 41 | 946.9 |
| 20260503212809 | 26 | 51 | 4.8 | 12.9 | 0.00 | 0.00 | 0.00 | 41 | 947.0 |
| 20260503212708 | 26 | 177 | 4.8 | 12.9 | 0.00 | 0.00 | 0.00 | 41 | 947.0 |
| 20260503212608 | 26 | 0 | 6.4 | 12.9 | 0.00 | 0.00 | 0.00 | 42 | 947.1 |
| 20260503212504 | 26 | 65 | 6.4 | 12.9 | 0.00 | 0.00 | 0.00 | 42 | 947.1 |
| 20260503212404 | 26 | 93 | 6.4 | 12.9 | 0.00 | 0.00 | 0.00 | 41 | 947.1 |
| 20260503212305 | 26 | 110 | 6.4 | 12.9 | 0.00 | 0.00 | 0.00 | 42 | 947.2 |
| 20260503212203 | 26 | 111 | 8.0 | 12.9 | 0.00 | 0.00 | 0.00 | 41 | 947.2 |
| 20260503212103 | 26 | 103 | 6.4 | 12.9 | 0.00 | 0.00 | 0.00 | 42 | 947.1 |
| 20260503211959 | 26 | 33 | 6.4 | 12.9 | 0.00 | 0.00 | 0.00 | 42 | 947.2 |
| 20260503211858 | 26 | 87 | 6.4 | 12.9 | 0.00 | 0.00 | 0.00 | 43 | 947.2 |
| 20260503211759 | 26 | 103 | 6.4 | 12.9 | 0.00 | 0.00 | 0.00 | 43 | 947.2 |
| 20260503211658 | 26 | 55 | 6.4 | 12.9 | 0.00 | 0.00 | 0.00 | 44 | 947.2 |
| 20260503211558 | 26 | 96 | 6.4 | 12.9 | 0.00 | 0.00 | 0.00 | 43 | 947.3 |
| 20260503211459 | 26 | 106 | 4.8 | 12.9 | 0.00 | 0.00 | 0.00 | 43 | 947.3 |
| 20260503211358 | 26 | 115 | 4.8 | 11.3 | 0.00 | 0.00 | 0.00 | 43 | 947.3 |
| 20260503211259 | 26 | 99 | 4.8 | 11.3 | 0.00 | 0.00 | 0.00 | 42 | 947.3 |
| 20260503211158 | 26 | 84 | 4.8 | 9.7 | 0.00 | 0.00 | 0.00 | 42 | 947.3 |
| 20260503211059 | 26 | 0 | 4.8 | 9.7 | 0.00 | 0.00 | 0.00 | 43 | 947.4 |
| 20260503210957 | 25 | 69 | 4.8 | 9.7 | 0.00 | 0.00 | 0.00 | 44 | 947.4 |
| 20260503210857 | 25 | 110 | 4.8 | 9.7 | 0.00 | 0.00 | 0.00 | 44 | 947.4 |
| 20260503210757 | 26 | 200 | 4.8 | 9.7 | 0.00 | 0.00 | 0.00 | 44 | 947.4 |
| 20260503210657 | 26 | 135 | 4.8 | 9.7 | 0.00 | 0.00 | 0.00 | 43 | 947.4 |
| 20260503210556 | 26 | 114 | 4.8 | 9.7 | 0.00 | 0.00 | 0.00 | 43 | 947.5 |
| 20260503210457 | 25 | 96 | 4.8 | 9.7 | 0.00 | 0.00 | 0.00 | 44 | 947.5 |
| 20260503210357 | 25 | 147 | 4.8 | 9.7 | 0.00 | 0.00 | 0.00 | 44 | 947.6 |
| 20260503210257 | 25 | 208 | 6.4 | 11.3 | 0.00 | 0.00 | 0.00 | 44 | 947.6 |
| 20260503210157 | 25 | 174 | 6.4 | 11.3 | 0.00 | 0.00 | 0.00 | 44 | 947.6 |
| 20260503210057 | 25 | 172 | 4.8 | 11.3 | 0.00 | 0.00 | 0.00 | 44 | 947.6 |
| 20260503205957 | 25 | 241 | 4.8 | 11.3 | 0.00 | 0.00 | 0.00 | 44 | 947.6 |
| 20260503205858 | 25 | 135 | 4.8 | 11.3 | 0.00 | 0.00 | 0.00 | 44 | 947.7 |
| 20260503205757 | 25 | 120 | 4.8 | 12.9 | 0.00 | 0.00 | 0.00 | 44 | 947.7 |
| 20260503205658 | 25 | 154 | 4.8 | 12.9 | 0.00 | 0.00 | 0.00 | 44 | 947.7 |
| 20260503205557 | 25 | 17 | 4.8 | 12.9 | 0.00 | 0.00 | 0.00 | 44 | 947.7 |
| 20260503205457 | 25 | 335 | 4.8 | 12.9 | 0.00 | 0.00 | 0.00 | 44 | 947.8 |
| 20260503205357 | 25 | 54 | 4.8 | 12.9 | 0.00 | 0.00 | 0.00 | 44 | 947.8 |
| 20260503205257 | 25 | 59 | 4.8 | 12.9 | 0.00 | 0.00 | 0.00 | 43 | 947.8 |
| 20260503205157 | 25 | 42 | 4.8 | 12.9 | 0.00 | 0.00 | 0.00 | 43 | 947.8 |
| 20260503205057 | 25 | 113 | 4.8 | 12.9 | 0.00 | 0.00 | 0.00 | 43 | 947.9 |
| 20260503204958 | 25 | 358 | 6.4 | 12.9 | 0.00 | 0.00 | 0.00 | 44 | 947.9 |
| 20260503204857 | 25 | 41 | 6.4 | 12.9 | 0.00 | 0.00 | 0.00 | 43 | 947.9 |
| 20260503204758 | 25 | 0 | 6.4 | 12.9 | 0.00 | 0.00 | 0.00 | 44 | 947.9 |
| 20260503204657 | 25 | 358 | 6.4 | 16.1 | 0.00 | 0.00 | 0.00 | 44 | 948.0 |
| 20260503204557 | 25 | 26 | 8.0 | 17.7 | 0.00 | 0.00 | 0.00 | 44 | 948.0 |
| 20260503204458 | 25 | 25 | 8.0 | 17.7 | 0.00 | 0.00 | 0.00 | 44 | 948.1 |
| 20260503204358 | 25 | 54 | 9.7 | 19.3 | 0.00 | 0.00 | 0.00 | 44 | 948.1 |
| 20260503204257 | 25 | 70 | 9.7 | 19.3 | 0.00 | 0.00 | 0.00 | 44 | 948.2 |
| 20260503204158 | 25 | 47 | 9.7 | 19.3 | 0.00 | 0.00 | 0.00 | 45 | 948.2 |
| 20260503204057 | 25 | 29 | 9.7 | 19.3 | 0.00 | 0.00 | 0.00 | 45 | 948.2 |
| 20260503203958 | 25 | 343 | 8.0 | 19.3 | 0.00 | 0.00 | 0.00 | 44 | 948.3 |
| 20260503203857 | 25 | 340 | 8.0 | 19.3 | 0.00 | 0.00 | 0.00 | 45 | 948.4 |
| 20260503203758 | 25 | 26 | 8.0 | 19.3 | 0.00 | 0.00 | 0.00 | 45 | 948.4 |
| 20260503203658 | 25 | 345 | 6.4 | 19.3 | 0.00 | 0.00 | 0.00 | 45 | 948.4 |
| 20260503203557 | 25 | 1 | 4.8 | 19.3 | 0.00 | 0.00 | 0.00 | 44 | 948.4 |
| 20260503203458 | 25 | 12 | 4.8 | 19.3 | 0.00 | 0.00 | 0.00 | 44 | 948.4 |
| 20260503203357 | 25 | 1 | 3.2 | 14.5 | 0.00 | 0.00 | 0.00 | 43 | 948.4 |
| 20260503203258 | 25 | 356 | 1.6 | 8.0 | 0.00 | 0.00 | 0.00 | 43 | 948.5 |
| 20260503203157 | 25 | 291 | 3.2 | 11.3 | 0.00 | 0.00 | 0.00 | 44 | 948.4 |
| 20260503203058 | 25 | 0 | 3.2 | 16.1 | 0.00 | 0.00 | 0.00 | 44 | 948.5 |
| 20260503202953 | 25 | 223 | 4.8 | 16.1 | 0.00 | 0.00 | 0.00 | 44 | 948.5 |
| 20260503202852 | 25 | 179 | 4.8 | 16.1 | 0.00 | 0.00 | 0.00 | 44 | 948.5 |
| 20260503202752 | 25 | 353 | 4.8 | 16.1 | 0.00 | 0.00 | 0.00 | 45 | 948.5 |
| 20260503202651 | 25 | 74 | 6.4 | 16.1 | 0.00 | 0.00 | 0.00 | 46 | 948.5 |
| 20260503202552 | 25 | 312 | 6.4 | 16.1 | 0.00 | 0.00 | 0.00 | 46 | 948.5 |
| 20260503202452 | 25 | 266 | 6.4 | 16.1 | 0.00 | 0.00 | 0.00 | 47 | 948.6 |
| 20260503202352 | 25 | 0 | 8.0 | 16.1 | 0.00 | 0.00 | 0.00 | 47 | 948.6 |
| 20260503202251 | 25 | 334 | 8.0 | 16.1 | 0.00 | 0.00 | 0.00 | 47 | 948.7 |
| 20260503202152 | 25 | 55 | 8.0 | 16.1 | 0.00 | 0.00 | 0.00 | 46 | 948.7 |
| 20260503202052 | 25 | 51 | 8.0 | 16.1 | 0.00 | 0.00 | 0.00 | 45 | 948.7 |
| 20260503201952 | 25 | 35 | 6.4 | 16.1 | 0.00 | 0.00 | 0.00 | 46 | 948.7 |
| 20260503201852 | 25 | 58 | 6.4 | 16.1 | 0.00 | 0.00 | 0.00 | 46 | 948.7 |
| 20260503201752 | 25 | 22 | 6.4 | 16.1 | 0.00 | 0.00 | 0.00 | 46 | 948.7 |
| 20260503201652 | 25 | 38 | 6.4 | 16.1 | 0.00 | 0.00 | 0.00 | 46 | 948.8 |
| 20260503201553 | 25 | 58 | 4.8 | 16.1 | 0.00 | 0.00 | 0.00 | 45 | 948.8 |
| 20260503201452 | 25 | 71 | 4.8 | 16.1 | 0.00 | 0.00 | 0.00 | 45 | 948.8 |
| 20260503201352 | 25 | 91 | 3.2 | 12.9 | 0.00 | 0.00 | 0.00 | 44 | 948.8 |
| 20260503201253 | 25 | 73 | 3.2 | 11.3 | 0.00 | 0.00 | 0.00 | 44 | 948.8 |
| 20260503201152 | 25 | 108 | 3.2 | 9.7 | 0.00 | 0.00 | 0.00 | 45 | 948.8 |
| 20260503201052 | 25 | 16 | 3.2 | 9.7 | 0.00 | 0.00 | 0.00 | 45 | 948.8 |
| 20260503200953 | 25 | 210 | 3.2 | 9.7 | 0.00 | 0.00 | 0.00 | 45 | 948.9 |
| 20260503200852 | 25 | 180 | 3.2 | 8.0 | 0.00 | 0.00 | 0.00 | 45 | 948.9 |
| 20260503200752 | 25 | 302 | 3.2 | 9.7 | 0.00 | 0.00 | 0.00 | 45 | 949.0 |
| 20260503200647 | 24 | 237 | 3.2 | 9.7 | 0.00 | 0.00 | 0.00 | 45 | 949.0 |
| 20260503200548 | 24 | 0 | 3.2 | 9.7 | 0.00 | 0.00 | 0.00 | 45 | 949.1 |
| 20260503200446 | 24 | 0 | 3.2 | 9.7 | 0.00 | 0.00 | 0.00 | 45 | 949.1 |
| 20260503200346 | 24 | 104 | 4.8 | 9.7 | 0.00 | 0.00 | 0.00 | 45 | 949.1 |
| 20260503200246 | 24 | 40 | 4.8 | 9.7 | 0.00 | 0.00 | 0.00 | 46 | 949.1 |
| 20260503200146 | 24 | 325 | 4.8 | 11.3 | 0.00 | 0.00 | 0.00 | 46 | 949.1 |
| 20260503200046 | 24 | 3 | 4.8 | 11.3 | 0.00 | 0.00 | 0.00 | 47 | 949.1 |
| 20260503195946 | 24 | 4 | 4.8 | 11.3 | 0.00 | 0.00 | 0.00 | 47 | 949.1 |
| 20260503195846 | 24 | 356 | 4.8 | 11.3 | 0.00 | 0.00 | 0.00 | 47 | 949.1 |
| 20260503195746 | 24 | 54 | 4.8 | 11.3 | 0.00 | 0.00 | 0.00 | 47 | 949.0 |
| 20260503195646 | 24 | 57 | 4.8 | 11.3 | 0.00 | 0.00 | 0.00 | 48 | 949.0 |
| 20260503195546 | 24 | 26 | 4.8 | 11.3 | 0.00 | 0.00 | 0.00 | 47 | 949.0 |
| 20260503195447 | 24 | 79 | 4.8 | 11.3 | 0.00 | 0.00 | 0.00 | 48 | 949.0 |
| 20260503195346 | 23 | 85 | 4.8 | 11.3 | 0.00 | 0.00 | 0.00 | 48 | 949.0 |
| 20260503195246 | 23 | 166 | 4.8 | 11.3 | 0.00 | 0.00 | 0.00 | 48 | 948.9 |
| 20260503195146 | 23 | 166 | 3.2 | 11.3 | 0.00 | 0.00 | 0.00 | 48 | 948.9 |
| 20260503195046 | 23 | 155 | 3.2 | 9.7 | 0.00 | 0.00 | 0.00 | 48 | 948.9 |
| 20260503194946 | 23 | 51 | 3.2 | 9.7 | 0.00 | 0.00 | 0.00 | 48 | 948.9 |
| 20260503194847 | 23 | 87 | 3.2 | 9.7 | 0.00 | 0.00 | 0.00 | 49 | 949.0 |
| 20260503194747 | 23 | 39 | 3.2 | 11.3 | 0.00 | 0.00 | 0.00 | 49 | 949.0 |
| 20260503194647 | 23 | 90 | 3.2 | 11.3 | 0.00 | 0.00 | 0.00 | 49 | 949.0 |
| 20260503194546 | 23 | 189 | 4.8 | 11.3 | 0.00 | 0.00 | 0.00 | 49 | 949.0 |
| 20260503194446 | 23 | 116 | 4.8 | 14.5 | 0.00 | 0.00 | 0.00 | 49 | 949.0 |
| 20260503194347 | 23 | 161 | 4.8 | 14.5 | 0.00 | 0.00 | 0.00 | 50 | 949.1 |
| 20260503194246 | 23 | 30 | 4.8 | 14.5 | 0.00 | 0.00 | 0.00 | 50 | 949.1 |
| 20260503194146 | 23 | 194 | 4.8 | 14.5 | 0.00 | 0.00 | 0.00 | 49 | 949.1 |
| 20260503194046 | 23 | 179 | 6.4 | 14.5 | 0.00 | 0.00 | 0.00 | 49 | 949.1 |
| 20260503193947 | 23 | 176 | 4.8 | 14.5 | 0.00 | 0.00 | 0.00 | 49 | 949.1 |
| 20260503193846 | 23 | 301 | 4.8 | 14.5 | 0.00 | 0.00 | 0.00 | 49 | 949.1 |
| 20260503193747 | 23 | 285 | 4.8 | 14.5 | 0.00 | 0.00 | 0.00 | 49 | 949.1 |
| 20260503193643 | 23 | 311 | 4.8 | 14.5 | 0.00 | 0.00 | 0.00 | 49 | 949.2 |
| 20260503193542 | 23 | 58 | 4.8 | 14.5 | 0.00 | 0.00 | 0.00 | 49 | 949.2 |
| 20260503193443 | 23 | 69 | 4.8 | 14.5 | 0.00 | 0.00 | 0.00 | 48 | 949.2 |
| 20260503193340 | 23 | 48 | 4.8 | 12.9 | 0.00 | 0.00 | 0.00 | 48 | 949.2 |
| 20260503193241 | 23 | 359 | 4.8 | 12.9 | 0.00 | 0.00 | 0.00 | 48 | 949.2 |
| 20260503193140 | 23 | 16 | 4.8 | 12.9 | 0.00 | 0.00 | 0.00 | 48 | 949.2 |
| 20260503193040 | 23 | 124 | 4.8 | 8.0 | 0.00 | 0.00 | 0.00 | 49 | 949.2 |
| 20260503192941 | 23 | 182 | 4.8 | 8.0 | 0.00 | 0.00 | 0.00 | 49 | 949.3 |
| 20260503192836 | 23 | 246 | 4.8 | 8.0 | 0.00 | 0.00 | 0.00 | 49 | 949.3 |
| 20260503192736 | 23 | 317 | 4.8 | 8.0 | 0.00 | 0.00 | 0.00 | 49 | 949.3 |
| 20260503192637 | 23 | 341 | 4.8 | 14.5 | 0.00 | 0.00 | 0.00 | 49 | 949.4 |
| 20260503192536 | 23 | 223 | 4.8 | 14.5 | 0.00 | 0.00 | 0.00 | 49 | 949.4 |
| 20260503192435 | 23 | 319 | 4.8 | 14.5 | 0.00 | 0.00 | 0.00 | 50 | 949.4 |
| 20260503192335 | 23 | 321 | 6.4 | 14.5 | 0.00 | 0.00 | 0.00 | 49 | 949.4 |
| 20260503192235 | 23 | 23 | 6.4 | 14.5 | 0.00 | 0.00 | 0.00 | 49 | 949.5 |
| 20260503192135 | 23 | 40 | 6.4 | 14.5 | 0.00 | 0.00 | 0.00 | 49 | 949.5 |
| 20260503192036 | 23 | 42 | 4.8 | 14.5 | 0.00 | 0.00 | 0.00 | 49 | 949.5 |
| 20260503191935 | 23 | 332 | 4.8 | 14.5 | 0.00 | 0.00 | 0.00 | 49 | 949.5 |
| 20260503191835 | 23 | 347 | 4.8 | 14.5 | 0.00 | 0.00 | 0.00 | 49 | 949.5 |
| 20260503191735 | 23 | 37 | 4.8 | 14.5 | 0.00 | 0.00 | 0.00 | 49 | 949.5 |
| 20260503191635 | 23 | 32 | 4.8 | 14.5 | 0.00 | 0.00 | 0.00 | 51 | 949.5 |
| 20260503191536 | 23 | 126 | 4.8 | 12.9 | 0.00 | 0.00 | 0.00 | 51 | 949.5 |
| 20260503191435 | 23 | 74 | 4.8 | 11.3 | 0.00 | 0.00 | 0.00 | 50 | 949.6 |
| 20260503191335 | 23 | 78 | 4.8 | 12.9 | 0.00 | 0.00 | 0.00 | 50 | 949.6 |
| 20260503191235 | 22 | 42 | 3.2 | 12.9 | 0.00 | 0.00 | 0.00 | 51 | 949.7 |
| 20260503191135 | 22 | 37 | 4.8 | 14.5 | 0.00 | 0.00 | 0.00 | 51 | 949.7 |
| 20260503191035 | 22 | 110 | 4.8 | 14.5 | 0.00 | 0.00 | 0.00 | 51 | 949.7 |
| 20260503190931 | 22 | 199 | 4.8 | 14.5 | 0.00 | 0.00 | 0.00 | 50 | 949.7 |
| 20260503190831 | 22 | 164 | 4.8 | 14.5 | 0.00 | 0.00 | 0.00 | 50 | 949.7 |
| 20260503190731 | 22 | 80 | 4.8 | 14.5 | 0.00 | 0.00 | 0.00 | 50 | 949.7 |
| 20260503190631 | 22 | 140 | 3.2 | 14.5 | 0.00 | 0.00 | 0.00 | 50 | 949.8 |
| 20260503190530 | 22 | 84 | 3.2 | 14.5 | 0.00 | 0.00 | 0.00 | 50 | 949.8 |
| 20260503190431 | 22 | 71 | 3.2 | 14.5 | 0.00 | 0.00 | 0.00 | 50 | 949.9 |
| 20260503190330 | 22 | 18 | 3.2 | 14.5 | 0.00 | 0.00 | 0.00 | 50 | 949.9 |
| 20260503190231 | 22 | 30 | 3.2 | 14.5 | 0.00 | 0.00 | 0.00 | 50 | 949.9 |
| 20260503190131 | 22 | 356 | 3.2 | 14.5 | 0.00 | 0.00 | 0.00 | 50 | 949.9 |
| 20260503190031 | 22 | 51 | 3.2 | 14.5 | 0.00 | 0.00 | 0.00 | 50 | 949.9 |
| 20260503185931 | 22 | 84 | 3.2 | 14.5 | 0.00 | 0.00 | 0.00 | 50 | 949.9 |
| 20260503185831 | 22 | 0 | 3.2 | 14.5 | 0.00 | 0.00 | 0.00 | 50 | 949.9 |
| 20260503185731 | 22 | 71 | 4.8 | 14.5 | 0.00 | 0.00 | 0.00 | 51 | 950.0 |
| 20260503185630 | 22 | 347 | 4.8 | 14.5 | 0.00 | 0.00 | 0.00 | 51 | 950.0 |
| 20260503185531 | 22 | 93 | 4.8 | 14.5 | 0.00 | 0.00 | 0.00 | 51 | 950.1 |
| 20260503185431 | 22 | 60 | 4.8 | 14.5 | 0.00 | 0.00 | 0.00 | 50 | 950.1 |
| 20260503185331 | 22 | 74 | 4.8 | 14.5 | 0.00 | 0.00 | 0.00 | 50 | 950.1 |
| 20260503185231 | 22 | 77 | 4.8 | 14.5 | 0.00 | 0.00 | 0.00 | 50 | 950.2 |
| 20260503185132 | 22 | 101 | 4.8 | 14.5 | 0.00 | 0.00 | 0.00 | 50 | 950.2 |
| 20260503185031 | 22 | 3 | 4.8 | 14.5 | 0.00 | 0.00 | 0.00 | 51 | 950.2 |
| 20260503184931 | 22 | 284 | 4.8 | 12.9 | 0.00 | 0.00 | 0.00 | 51 | 950.3 |
| 20260503184831 | 22 | 7 | 4.8 | 12.9 | 0.00 | 0.00 | 0.00 | 51 | 950.4 |
| 20260503184731 | 22 | 7 | 4.8 | 12.9 | 0.00 | 0.00 | 0.00 | 51 | 950.5 |
| 20260503184631 | 22 | 149 | 4.8 | 12.9 | 0.00 | 0.00 | 0.00 | 51 | 950.5 |
| 20260503184532 | 22 | 133 | 3.2 | 12.9 | 0.00 | 0.00 | 0.00 | 51 | 950.5 |
| 20260503184431 | 22 | 143 | 3.2 | 12.9 | 0.00 | 0.00 | 0.00 | 52 | 950.6 |
| 20260503184331 | 22 | 250 | 3.2 | 12.9 | 0.00 | 0.00 | 0.00 | 52 | 950.7 |
| 20260503184231 | 22 | 325 | 4.8 | 12.9 | 0.00 | 0.00 | 0.00 | 52 | 950.7 |
| 20260503184131 | 22 | 206 | 4.8 | 12.9 | 0.00 | 0.00 | 0.00 | 52 | 950.8 |
| 20260503184032 | 22 | 188 | 4.8 | 12.9 | 0.00 | 0.00 | 0.00 | 52 | 950.8 |
| 20260503183932 | 22 | 123 | 4.8 | 12.9 | 0.00 | 0.00 | 0.00 | 51 | 950.7 |
| 20260503183830 | 22 | 126 | 4.8 | 11.3 | 0.00 | 0.00 | 0.00 | 51 | 950.8 |
| 20260503183730 | 22 | 86 | 3.2 | 11.3 | 0.00 | 0.00 | 0.00 | 52 | 950.8 |
| 20260503183629 | 22 | 272 | 3.2 | 11.3 | 0.00 | 0.00 | 0.00 | 52 | 950.9 |
| 20260503183526 | 22 | 306 | 3.2 | 11.3 | 0.00 | 0.00 | 0.00 | 52 | 950.9 |
| 20260503183425 | 22 | 325 | 4.8 | 11.3 | 0.00 | 0.00 | 0.00 | 52 | 950.9 |
| 20260503183326 | 22 | 13 | 4.8 | 11.3 | 0.00 | 0.00 | 0.00 | 51 | 950.9 |
| 20260503183225 | 22 | 37 | 3.2 | 11.3 | 0.00 | 0.00 | 0.00 | 51 | 950.9 |
| 20260503183126 | 22 | 53 | 3.2 | 9.7 | 0.00 | 0.00 | 0.00 | 51 | 950.9 |
| 20260503183026 | 22 | 55 | 3.2 | 8.0 | 0.00 | 0.00 | 0.00 | 51 | 950.9 |
| 20260503182925 | 21 | 309 | 3.2 | 8.0 | 0.00 | 0.00 | 0.00 | 51 | 950.9 |
| 20260503182825 | 21 | 73 | 3.2 | 8.0 | 0.00 | 0.00 | 0.00 | 52 | 951.0 |
| 20260503182724 | 21 | 68 | 3.2 | 8.0 | 0.00 | 0.00 | 0.00 | 52 | 951.1 |
| 20260503182620 | 21 | 21 | 3.2 | 8.0 | 0.00 | 0.00 | 0.00 | 51 | 951.1 |
| 20260503182519 | 21 | 32 | 3.2 | 8.0 | 0.00 | 0.00 | 0.00 | 52 | 951.1 |
| 20260503182419 | 21 | 343 | 3.2 | 8.0 | 0.00 | 0.00 | 0.00 | 52 | 951.2 |
| 20260503182320 | 21 | 67 | 3.2 | 9.7 | 0.00 | 0.00 | 0.00 | 52 | 951.2 |
| 20260503182219 | 21 | 46 | 3.2 | 9.7 | 0.00 | 0.00 | 0.00 | 51 | 951.2 |
| 20260503182120 | 21 | 79 | 3.2 | 9.7 | 0.00 | 0.00 | 0.00 | 51 | 951.3 |
| 20260503182020 | 21 | 22 | 4.8 | 11.3 | 0.00 | 0.00 | 0.00 | 51 | 951.3 |
| 20260503181919 | 21 | 237 | 4.8 | 11.3 | 0.00 | 0.00 | 0.00 | 52 | 951.3 |
| 20260503181820 | 21 | 274 | 4.8 | 11.3 | 0.00 | 0.00 | 0.00 | 52 | 951.4 |
| 20260503181720 | 21 | 210 | 4.8 | 11.3 | 0.00 | 0.00 | 0.00 | 51 | 951.4 |
| 20260503181620 | 21 | 127 | 4.8 | 11.3 | 0.00 | 0.00 | 0.00 | 52 | 951.4 |
| 20260503181520 | 21 | 92 | 4.8 | 11.3 | 0.00 | 0.00 | 0.00 | 51 | 951.4 |
| 20260503181420 | 21 | 72 | 4.8 | 11.3 | 0.00 | 0.00 | 0.00 | 52 | 951.5 |
| 20260503181320 | 21 | 65 | 3.2 | 11.3 | 0.00 | 0.00 | 0.00 | 52 | 951.5 |
| 20260503181220 | 21 | 26 | 3.2 | 11.3 | 0.00 | 0.00 | 0.00 | 53 | 951.6 |
| 20260503181120 | 21 | 63 | 3.2 | 11.3 | 0.00 | 0.00 | 0.00 | 52 | 951.5 |
| 20260503181020 | 21 | 69 | 3.2 | 9.7 | 0.00 | 0.00 | 0.00 | 52 | 951.5 |
| 20260503180920 | 21 | 68 | 3.2 | 9.7 | 0.00 | 0.00 | 0.00 | 52 | 951.6 |
| 20260503180819 | 21 | 0 | 3.2 | 9.7 | 0.00 | 0.00 | 0.00 | 52 | 951.6 |
| 20260503180720 | 21 | 88 | 3.2 | 9.7 | 0.00 | 0.00 | 0.00 | 52 | 951.6 |
| 20260503180620 | 21 | 117 | 3.2 | 9.7 | 0.00 | 0.00 | 0.00 | 53 | 951.6 |
| 20260503180519 | 21 | 208 | 4.8 | 14.5 | 0.00 | 0.00 | 0.00 | 53 | 951.6 |
| 20260503180420 | 21 | 145 | 4.8 | 14.5 | 0.00 | 0.00 | 0.00 | 53 | 951.6 |
| 20260503180320 | 21 | 126 | 4.8 | 14.5 | 0.00 | 0.00 | 0.00 | 53 | 951.7 |
| 20260503180220 | 21 | 146 | 4.8 | 14.5 | 0.00 | 0.00 | 0.00 | 54 | 951.7 |
| 20260503180120 | 21 | 188 | 4.8 | 14.5 | 0.00 | 0.00 | 0.00 | 53 | 951.7 |
| 20260503180020 | 21 | 185 | 4.8 | 14.5 | 0.00 | 0.00 | 0.00 | 53 | 951.7 |
| 20260503175920 | 21 | 148 | 4.8 | 14.5 | 0.00 | 0.00 | 0.00 | 53 | 951.7 |
| 20260503175820 | 21 | 161 | 4.8 | 14.5 | 0.00 | 0.00 | 0.00 | 53 | 951.8 |
| 20260503175720 | 21 | 86 | 4.8 | 14.5 | 0.00 | 0.00 | 0.00 | 53 | 951.8 |
| 20260503175620 | 21 | 22 | 4.8 | 14.5 | 0.00 | 0.00 | 0.00 | 53 | 951.9 |
| 20260503175521 | 21 | 37 | 4.8 | 9.7 | 0.00 | 0.00 | 0.00 | 52 | 951.9 |
| 20260503175421 | 21 | 82 | 4.8 | 9.7 | 0.00 | 0.00 | 0.00 | 52 | 951.9 |
| 20260503175320 | 21 | 349 | 4.8 | 9.7 | 0.00 | 0.00 | 0.00 | 52 | 951.9 |
| 20260503175220 | 21 | 353 | 4.8 | 9.7 | 0.00 | 0.00 | 0.00 | 52 | 951.9 |
| 20260503175120 | 21 | 50 | 4.8 | 9.7 | 0.00 | 0.00 | 0.00 | 52 | 951.9 |
| 20260503175021 | 21 | 222 | 4.8 | 9.7 | 0.00 | 0.00 | 0.00 | 52 | 952.0 |
| 20260503174920 | 21 | 117 | 4.8 | 9.7 | 0.00 | 0.00 | 0.00 | 52 | 951.9 |
| 20260503174821 | 21 | 114 | 4.8 | 9.7 | 0.00 | 0.00 | 0.00 | 52 | 952.0 |
| 20260503174720 | 21 | 165 | 3.2 | 9.7 | 0.00 | 0.00 | 0.00 | 51 | 952.0 |
| 20260503174620 | 21 | 174 | 3.2 | 9.7 | 0.00 | 0.00 | 0.00 | 50 | 951.9 |
| 20260503174521 | 21 | 123 | 3.2 | 9.7 | 0.00 | 0.00 | 0.00 | 51 | 952.0 |
| 20260503174420 | 21 | 110 | 3.2 | 9.7 | 0.00 | 0.00 | 0.00 | 51 | 952.0 |
| 20260503174320 | 21 | 202 | 4.8 | 9.7 | 0.00 | 0.00 | 0.00 | 51 | 952.1 |
| 20260503174221 | 21 | 282 | 3.2 | 9.7 | 0.00 | 0.00 | 0.00 | 51 | 952.1 |
| 20260503174120 | 21 | 342 | 4.8 | 9.7 | 0.00 | 0.00 | 0.00 | 51 | 952.1 |
| 20260503174020 | 21 | 8 | 3.2 | 9.7 | 0.00 | 0.00 | 0.00 | 51 | 952.1 |
| 20260503173921 | 21 | 11 | 3.2 | 8.0 | 0.00 | 0.00 | 0.00 | 53 | 952.1 |
| 20260503173820 | 20 | 237 | 4.8 | 9.7 | 0.00 | 0.00 | 0.00 | 54 | 952.1 |
| 20260503173719 | 20 | 343 | 4.8 | 9.7 | 0.00 | 0.00 | 0.00 | 54 | 952.2 |
| 20260503173615 | 21 | 163 | 4.8 | 9.7 | 0.00 | 0.00 | 0.00 | 53 | 952.2 |
| 20260503173515 | 21 | 176 | 4.8 | 9.7 | 0.00 | 0.00 | 0.00 | 52 | 952.1 |
| 20260503173415 | 21 | 141 | 4.8 | 9.7 | 0.00 | 0.00 | 0.00 | 52 | 952.1 |
| 20260503173314 | 21 | 169 | 4.8 | 9.7 | 0.00 | 0.00 | 0.00 | 52 | 952.2 |
| 20260503173215 | 20 | 157 | 4.8 | 9.7 | 0.00 | 0.00 | 0.00 | 52 | 952.2 |
| 20260503173114 | 20 | 72 | 4.8 | 9.7 | 0.00 | 0.00 | 0.00 | 53 | 952.2 |
| 20260503173015 | 20 | 158 | 4.8 | 9.7 | 0.00 | 0.00 | 0.00 | 53 | 952.2 |
| 20260503172915 | 20 | 77 | 4.8 | 9.7 | 0.00 | 0.00 | 0.00 | 53 | 952.2 |
| 20260503172815 | 20 | 121 | 4.8 | 9.7 | 0.00 | 0.00 | 0.00 | 53 | 952.3 |
| 20260503172715 | 20 | 178 | 4.8 | 11.3 | 0.00 | 0.00 | 0.00 | 53 | 952.3 |
| 20260503172615 | 20 | 73 | 4.8 | 11.3 | 0.00 | 0.00 | 0.00 | 53 | 952.3 |
| 20260503172514 | 20 | 121 | 4.8 | 11.3 | 0.00 | 0.00 | 0.00 | 53 | 952.4 |
| 20260503172415 | 20 | 84 | 4.8 | 11.3 | 0.00 | 0.00 | 0.00 | 53 | 952.4 |
| 20260503172314 | 20 | 72 | 4.8 | 11.3 | 0.00 | 0.00 | 0.00 | 54 | 952.5 |
| 20260503172215 | 20 | 85 | 4.8 | 11.3 | 0.00 | 0.00 | 0.00 | 53 | 952.5 |
| 20260503172115 | 20 | 55 | 3.2 | 11.3 | 0.00 | 0.00 | 0.00 | 53 | 952.5 |
| 20260503172015 | 20 | 36 | 3.2 | 11.3 | 0.00 | 0.00 | 0.00 | 53 | 952.5 |
| 20260503171915 | 20 | 80 | 3.2 | 11.3 | 0.00 | 0.00 | 0.00 | 53 | 952.5 |
| 20260503171815 | 20 | 28 | 3.2 | 11.3 | 0.00 | 0.00 | 0.00 | 53 | 952.5 |
| 20260503171715 | 20 | 22 | 3.2 | 9.7 | 0.00 | 0.00 | 0.00 | 53 | 952.5 |
| 20260503171614 | 20 | 313 | 4.8 | 11.3 | 0.00 | 0.00 | 0.00 | 53 | 952.6 |
| 20260503171515 | 20 | 72 | 4.8 | 11.3 | 0.00 | 0.00 | 0.00 | 53 | 952.6 |
| 20260503171415 | 20 | 54 | 4.8 | 11.3 | 0.00 | 0.00 | 0.00 | 53 | 952.6 |
| 20260503171315 | 20 | 33 | 4.8 | 11.3 | 0.00 | 0.00 | 0.00 | 53 | 952.6 |
| 20260503171214 | 20 | 81 | 4.8 | 11.3 | 0.00 | 0.00 | 0.00 | 54 | 952.6 |
| 20260503171115 | 20 | 87 | 4.8 | 11.3 | 0.00 | 0.00 | 0.00 | 54 | 952.6 |
| 20260503171015 | 20 | 114 | 4.8 | 11.3 | 0.00 | 0.00 | 0.00 | 53 | 952.6 |
| 20260503170915 | 20 | 90 | 4.8 | 11.3 | 0.00 | 0.00 | 0.00 | 54 | 952.6 |
| 20260503170815 | 20 | 19 | 4.8 | 11.3 | 0.00 | 0.00 | 0.00 | 54 | 952.7 |
| 20260503170715 | 21 | 131 | 3.2 | 11.3 | 0.00 | 0.00 | 0.00 | 53 | 952.7 |
| 20260503170615 | 21 | 103 | 3.2 | 11.3 | 0.00 | 0.00 | 0.00 | 53 | 952.7 |
| 20260503170515 | 21 | 149 | 3.2 | 8.0 | 0.00 | 0.00 | 0.00 | 53 | 952.7 |
| 20260503170415 | 21 | 119 | 3.2 | 8.0 | 0.00 | 0.00 | 0.00 | 52 | 952.7 |
| 20260503170315 | 21 | 37 | 3.2 | 8.0 | 0.00 | 0.00 | 0.00 | 53 | 952.7 |
| 20260503170214 | 21 | 62 | 3.2 | 8.0 | 0.00 | 0.00 | 0.00 | 53 | 952.7 |
| 20260503170115 | 21 | 357 | 3.2 | 9.7 | 0.00 | 0.00 | 0.00 | 53 | 952.7 |
| 20260503160157 | 19 | 332 | 3.2 | 9.7 | 0.00 | 0.00 | 0.00 | 54 | 953.1 |
| 20260503150953 | 18 | 325 | 3.2 | 8.0 | 0.00 | 0.00 | 0.00 | 58 | 953.5 |
| 20260503150853 | 18 | 312 | 3.2 | 8.0 | 0.00 | 0.00 | 0.00 | 57 | 953.4 |
| 20260503150753 | 18 | 316 | 3.2 | 9.7 | 0.00 | 0.00 | 0.00 | 57 | 953.4 |
| 20260503150653 | 18 | 293 | 3.2 | 9.7 | 0.00 | 0.00 | 0.00 | 56 | 953.4 |
| 20260503150553 | 18 | 314 | 3.2 | 9.7 | 0.00 | 0.00 | 0.00 | 56 | 953.4 |
| 20260503150453 | 18 | 359 | 3.2 | 9.7 | 0.00 | 0.00 | 0.00 | 57 | 953.4 |
| 20260503150353 | 18 | 0 | 3.2 | 9.7 | 0.00 | 0.00 | 0.00 | 57 | 953.4 |
| 20260503150253 | 17 | 208 | 4.8 | 9.7 | 0.00 | 0.00 | 0.00 | 58 | 953.5 |
| 20260503150153 | 17 | 0 | 4.8 | 9.7 | 0.00 | 0.00 | 0.00 | 59 | 953.5 |
| 20260503140234 | 17 | 0 | 0.0 | 4.8 | 0.00 | 0.00 | 0.00 | 59 | 952.9 |
| 20260503140134 | 17 | 0 | 1.6 | 6.4 | 0.00 | 0.00 | 0.00 | 59 | 952.9 |
| 20260503131326 | 16 | 307 | 3.2 | 4.8 | 0.00 | 0.00 | 0.00 | 62 | 952.6 |
| 20260503131225 | 16 | 11 | 3.2 | 4.8 | 0.00 | 0.00 | 0.00 | 63 | 952.6 |
| 20260503131125 | 16 | 340 | 3.2 | 4.8 | 0.00 | 0.00 | 0.00 | 63 | 952.6 |
| 20260503131025 | 16 | 0 | 3.2 | 4.8 | 0.00 | 0.00 | 0.00 | 63 | 952.5 |
| 20260503130924 | 16 | 342 | 3.2 | 4.8 | 0.00 | 0.00 | 0.00 | 63 | 952.5 |
| 20260503130825 | 16 | 5 | 3.2 | 4.8 | 0.00 | 0.00 | 0.00 | 63 | 952.5 |
| 20260503130726 | 16 | 353 | 3.2 | 4.8 | 0.00 | 0.00 | 0.00 | 63 | 952.4 |
| 20260503130624 | 16 | 341 | 3.2 | 4.8 | 0.00 | 0.00 | 0.00 | 63 | 952.4 |
| 20260503130523 | 16 | 4 | 1.6 | 4.8 | 0.00 | 0.00 | 0.00 | 63 | 952.4 |
| 20260503130424 | 16 | 353 | 1.6 | 4.8 | 0.00 | 0.00 | 0.00 | 64 | 952.3 |
| 20260503130323 | 16 | 0 | 1.6 | 4.8 | 0.00 | 0.00 | 0.00 | 64 | 952.3 |
| 20260503130220 | 16 | 2 | 1.6 | 4.8 | 0.00 | 0.00 | 0.00 | 64 | 952.3 |
| 20260503130119 | 16 | 7 | 1.6 | 4.8 | 0.00 | 0.00 | 0.00 | 63 | 952.3 |
| 20260503120134 | 15 | 300 | 1.6 | 4.8 | 0.00 | 0.00 | 0.00 | 67 | 951.7 |
| 20260503110803 | 15 | 223 | 1.6 | 3.2 | 0.00 | 0.00 | 0.00 | 66 | 951.2 |
| 20260503110703 | 15 | 253 | 1.6 | 3.2 | 0.00 | 0.00 | 0.00 | 66 | 951.2 |
| 20260503110604 | 15 | 269 | 1.6 | 3.2 | 0.00 | 0.00 | 0.00 | 66 | 951.1 |
| 20260503110503 | 15 | 250 | 1.6 | 3.2 | 0.00 | 0.00 | 0.00 | 66 | 951.1 |
| 20260503110403 | 15 | 269 | 1.6 | 3.2 | 0.00 | 0.00 | 0.00 | 66 | 951.1 |
| 20260503110303 | 15 | 246 | 1.6 | 3.2 | 0.00 | 0.00 | 0.00 | 66 | 951.1 |
| 20260503110203 | 15 | 249 | 1.6 | 3.2 | 0.00 | 0.00 | 0.00 | 66 | 951.1 |
| 20260503100205 | 16 | 305 | 3.2 | 4.8 | 0.00 | 0.00 | 0.00 | 64 | 951.0 |
| 20260503100104 | 16 | 274 | 3.2 | 4.8 | 0.00 | 0.00 | 0.00 | 64 | 951.0 |
| 20260503090506 | 16 | 296 | 3.2 | 6.4 | 0.00 | 0.00 | 0.00 | 63 | 951.3 |
| 20260503090406 | 16 | 310 | 3.2 | 6.4 | 0.00 | 0.00 | 0.00 | 63 | 951.3 |
| 20260503090305 | 16 | 295 | 3.2 | 6.4 | 0.00 | 0.00 | 0.00 | 63 | 951.3 |
| 20260503090206 | 16 | 297 | 3.2 | 6.4 | 0.00 | 0.00 | 0.00 | 63 | 951.3 |
| 20260503090106 | 16 | 291 | 3.2 | 6.4 | 0.00 | 0.00 | 0.00 | 63 | 951.3 |
| 20260503081538 | 16 | 292 | 4.8 | 8.0 | 0.00 | 0.00 | 0.00 | 64 | 951.5 |
| 20260503081438 | 16 | 317 | 4.8 | 8.0 | 0.00 | 0.00 | 0.00 | 64 | 951.5 |
| 20260503081339 | 16 | 296 | 4.8 | 6.4 | 0.00 | 0.00 | 0.00 | 64 | 951.5 |
| 20260503081238 | 16 | 283 | 4.8 | 8.0 | 0.00 | 0.00 | 0.00 | 64 | 951.5 |
| 20260503081138 | 16 | 265 | 4.8 | 8.0 | 0.00 | 0.00 | 0.00 | 64 | 951.5 |
| 20260503081039 | 16 | 291 | 4.8 | 8.0 | 0.00 | 0.00 | 0.00 | 64 | 951.5 |
| 20260503080938 | 16 | 314 | 4.8 | 8.0 | 0.00 | 0.00 | 0.00 | 64 | 951.5 |
| 20260503080838 | 16 | 300 | 4.8 | 8.0 | 0.00 | 0.00 | 0.00 | 64 | 951.5 |
| 20260503080738 | 16 | 313 | 4.8 | 8.0 | 0.00 | 0.00 | 0.00 | 64 | 951.5 |
| 20260503080638 | 16 | 295 | 4.8 | 8.0 | 0.00 | 0.00 | 0.00 | 64 | 951.4 |
| 20260503080538 | 16 | 345 | 4.8 | 8.0 | 0.00 | 0.00 | 0.00 | 64 | 951.4 |
| 20260503080438 | 16 | 305 | 4.8 | 8.0 | 0.00 | 0.00 | 0.00 | 64 | 951.4 |
| 20260503080339 | 16 | 327 | 4.8 | 8.0 | 0.00 | 0.00 | 0.00 | 64 | 951.4 |
| 20260503080238 | 16 | 298 | 4.8 | 8.0 | 0.00 | 0.00 | 0.00 | 64 | 951.4 |
| 20260503080138 | 16 | 321 | 4.8 | 6.4 | 0.00 | 0.00 | 0.00 | 64 | 951.4 |
| 20260503072932 | 16 | 292 | 4.8 | 9.7 | 0.00 | 0.00 | 0.00 | 66 | 951.8 |
| 20260503072827 | 16 | 307 | 4.8 | 9.7 | 0.00 | 0.00 | 0.00 | 66 | 951.8 |
| 20260503072727 | 16 | 305 | 4.8 | 9.7 | 0.00 | 0.00 | 0.00 | 65 | 951.8 |
| 20260503072627 | 16 | 297 | 4.8 | 9.7 | 0.00 | 0.00 | 0.00 | 65 | 951.9 |
| 20260503072524 | 16 | 279 | 4.8 | 6.4 | 0.00 | 0.00 | 0.00 | 65 | 951.8 |
| 20260503072423 | 16 | 310 | 4.8 | 6.4 | 0.00 | 0.00 | 0.00 | 65 | 951.8 |
| 20260503072324 | 16 | 293 | 4.8 | 6.4 | 0.00 | 0.00 | 0.00 | 65 | 951.8 |
| 20260503072208 | 16 | 309 | 4.8 | 6.4 | 0.00 | 0.00 | 0.00 | 65 | 951.7 |
| 20260503072108 | 16 | 297 | 3.2 | 6.4 | 0.00 | 0.00 | 0.00 | 65 | 951.7 |
| 20260503072007 | 16 | 275 | 3.2 | 6.4 | 0.00 | 0.00 | 0.00 | 65 | 951.7 |
| 20260503071907 | 16 | 286 | 3.2 | 6.4 | 0.00 | 0.00 | 0.00 | 65 | 951.7 |
| 20260503071808 | 16 | 281 | 4.8 | 6.4 | 0.00 | 0.00 | 0.00 | 65 | 951.7 |
| 20260503071708 | 16 | 256 | 4.8 | 6.4 | 0.00 | 0.00 | 0.00 | 65 | 951.7 |
| 20260503071608 | 16 | 288 | 4.8 | 6.4 | 0.00 | 0.00 | 0.00 | 65 | 951.7 |
| 20260503071507 | 16 | 300 | 4.8 | 6.4 | 0.00 | 0.00 | 0.00 | 65 | 951.7 |
| 20260503071408 | 16 | 312 | 4.8 | 6.4 | 0.00 | 0.00 | 0.00 | 65 | 951.7 |
| 20260503071308 | 16 | 307 | 4.8 | 6.4 | 0.00 | 0.00 | 0.00 | 65 | 951.6 |
| 20260503071207 | 16 | 296 | 4.8 | 6.4 | 0.00 | 0.00 | 0.00 | 65 | 951.6 |
| 20260503071107 | 16 | 309 | 4.8 | 6.4 | 0.00 | 0.00 | 0.00 | 65 | 951.7 |
| 20260503071008 | 16 | 294 | 4.8 | 6.4 | 0.00 | 0.00 | 0.00 | 65 | 951.6 |
| 20260503070908 | 16 | 324 | 3.2 | 6.4 | 0.00 | 0.00 | 0.00 | 65 | 951.6 |
| 20260503070808 | 16 | 315 | 3.2 | 6.4 | 0.00 | 0.00 | 0.00 | 65 | 951.6 |
| 20260503070708 | 16 | 332 | 3.2 | 6.4 | 0.00 | 0.00 | 0.00 | 66 | 951.6 |
| 20260503070608 | 16 | 293 | 1.6 | 4.8 | 0.00 | 0.00 | 0.00 | 66 | 951.6 |
| 20260503070507 | 16 | 306 | 1.6 | 4.8 | 0.00 | 0.00 | 0.00 | 66 | 951.6 |
| 20260503070408 | 16 | 290 | 1.6 | 4.8 | 0.00 | 0.00 | 0.00 | 66 | 951.6 |
| 20260503070308 | 16 | 307 | 1.6 | 4.8 | 0.00 | 0.00 | 0.00 | 66 | 951.6 |
| 20260503070208 | 16 | 303 | 1.6 | 4.8 | 0.00 | 0.00 | 0.00 | 66 | 951.6 |
| 20260503070108 | 16 | 309 | 1.6 | 4.8 | 0.00 | 0.00 | 0.00 | 66 | 951.7 |
| 20260503060309 | 17 | 101 | 4.8 | 6.4 | 0.00 | 0.00 | 0.00 | 63 | 951.8 |
| 20260503060209 | 17 | 84 | 4.8 | 8.0 | 0.00 | 0.00 | 0.00 | 63 | 951.8 |
| 20260503060110 | 17 | 33 | 4.8 | 8.0 | 0.00 | 0.00 | 0.00 | 63 | 951.8 |
| 20260503055110 | 17 | 18 | 4.8 | 6.4 | 0.00 | 0.00 | 0.00 | 63 | 951.8 |
| 20260503055009 | 17 | 35 | 4.8 | 6.4 | 0.00 | 0.00 | 0.00 | 63 | 951.8 |
| 20260503054909 | 17 | 35 | 4.8 | 6.4 | 0.00 | 0.00 | 0.00 | 63 | 951.7 |
| 20260503054808 | 17 | 35 | 4.8 | 6.4 | 0.00 | 0.00 | 0.00 | 63 | 951.7 |
| 20260503054709 | 17 | 73 | 4.8 | 6.4 | 0.00 | 0.00 | 0.00 | 63 | 951.7 |
| 20260503054609 | 17 | 44 | 4.8 | 6.4 | 0.00 | 0.00 | 0.00 | 63 | 951.7 |
| 20260503054509 | 17 | 50 | 4.8 | 6.4 | 0.00 | 0.00 | 0.00 | 63 | 951.7 |
| 20260503054408 | 17 | 31 | 4.8 | 6.4 | 0.00 | 0.00 | 0.00 | 63 | 951.7 |
| 20260503054309 | 17 | 55 | 4.8 | 6.4 | 0.00 | 0.00 | 0.00 | 63 | 951.7 |
| 20260503054209 | 17 | 55 | 4.8 | 6.4 | 0.00 | 0.00 | 0.00 | 63 | 951.7 |
| 20260503054109 | 17 | 50 | 4.8 | 6.4 | 0.00 | 0.00 | 0.00 | 63 | 951.7 |
| 20260503054008 | 17 | 12 | 4.8 | 6.4 | 0.00 | 0.00 | 0.00 | 63 | 951.7 |
| 20260503053856 | 17 | 39 | 4.8 | 6.4 | 0.00 | 0.00 | 0.00 | 63 | 951.8 |
| 20260503053756 | 17 | 22 | 4.8 | 6.4 | 0.00 | 0.00 | 0.00 | 62 | 951.8 |
| 20260503053641 | 17 | 31 | 4.8 | 6.4 | 0.00 | 0.00 | 0.00 | 62 | 951.8 |
| 20260503053526 | 17 | 9 | 4.8 | 9.7 | 0.00 | 0.00 | 0.00 | 62 | 951.7 |
| 20260503053426 | 17 | 24 | 4.8 | 9.7 | 0.00 | 0.00 | 0.00 | 62 | 951.7 |
| 20260503053325 | 17 | 27 | 4.8 | 9.7 | 0.00 | 0.00 | 0.00 | 62 | 951.7 |
| 20260503053226 | 17 | 13 | 4.8 | 9.7 | 0.00 | 0.00 | 0.00 | 62 | 951.7 |
| 20260503053126 | 17 | 36 | 4.8 | 9.7 | 0.00 | 0.00 | 0.00 | 62 | 951.7 |
| 20260503053022 | 17 | 31 | 6.4 | 9.7 | 0.00 | 0.00 | 0.00 | 62 | 951.7 |
| 20260503052917 | 17 | 48 | 6.4 | 9.7 | 0.00 | 0.00 | 0.00 | 62 | 951.8 |
| 20260503052817 | 17 | 3 | 6.4 | 9.7 | 0.00 | 0.00 | 0.00 | 62 | 951.8 |
| 20260503052717 | 17 | 25 | 6.4 | 9.7 | 0.00 | 0.00 | 0.00 | 62 | 951.8 |
| 20260503052617 | 17 | 39 | 6.4 | 9.7 | 0.00 | 0.00 | 0.00 | 62 | 951.8 |
| 20260503052517 | 17 | 41 | 6.4 | 9.7 | 0.00 | 0.00 | 0.00 | 63 | 951.8 |
| 20260503052417 | 17 | 21 | 6.4 | 9.7 | 0.00 | 0.00 | 0.00 | 63 | 951.8 |
| 20260503052317 | 17 | 21 | 6.4 | 9.7 | 0.00 | 0.00 | 0.00 | 63 | 951.8 |
| 20260503052217 | 17 | 26 | 6.4 | 9.7 | 0.00 | 0.00 | 0.00 | 63 | 951.9 |
| 20260503052117 | 17 | 41 | 6.4 | 9.7 | 0.00 | 0.00 | 0.00 | 63 | 951.9 |
| 20260503052017 | 17 | 40 | 6.4 | 9.7 | 0.00 | 0.00 | 0.00 | 63 | 952.0 |
| 20260503051917 | 17 | 30 | 6.4 | 9.7 | 0.00 | 0.00 | 0.00 | 63 | 952.0 |
| 20260503051817 | 17 | 32 | 6.4 | 9.7 | 0.00 | 0.00 | 0.00 | 63 | 952.0 |
| 20260503051717 | 17 | 35 | 6.4 | 9.7 | 0.00 | 0.00 | 0.00 | 63 | 951.9 |
| 20260503051617 | 17 | 22 | 6.4 | 9.7 | 0.00 | 0.00 | 0.00 | 63 | 951.9 |
| 20260503051517 | 17 | 19 | 6.4 | 9.7 | 0.00 | 0.00 | 0.00 | 63 | 951.9 |
| 20260503051417 | 17 | 24 | 6.4 | 9.7 | 0.00 | 0.00 | 0.00 | 63 | 951.9 |
| 20260503051311 | 17 | 23 | 6.4 | 8.0 | 0.00 | 0.00 | 0.00 | 63 | 952.0 |
| 20260503051210 | 17 | 34 | 6.4 | 8.0 | 0.00 | 0.00 | 0.00 | 63 | 952.0 |
| 20260503051110 | 17 | 23 | 6.4 | 8.0 | 0.00 | 0.00 | 0.00 | 63 | 952.0 |
| 20260503051009 | 17 | 16 | 6.4 | 8.0 | 0.00 | 0.00 | 0.00 | 63 | 952.0 |
| 20260503050910 | 17 | 6 | 6.4 | 8.0 | 0.00 | 0.00 | 0.00 | 63 | 952.0 |
| 20260503050810 | 17 | 14 | 6.4 | 8.0 | 0.00 | 0.00 | 0.00 | 63 | 951.9 |
| 20260503050710 | 17 | 9 | 6.4 | 8.0 | 0.00 | 0.00 | 0.00 | 63 | 951.9 |
| 20260503050610 | 17 | 19 | 6.4 | 8.0 | 0.00 | 0.00 | 0.00 | 63 | 951.9 |
| 20260503050510 | 17 | 26 | 6.4 | 8.0 | 0.00 | 0.00 | 0.00 | 63 | 951.9 |
| 20260503050409 | 17 | 34 | 6.4 | 8.0 | 0.00 | 0.00 | 0.00 | 64 | 951.9 |
| 20260503050310 | 17 | 22 | 4.8 | 6.4 | 0.00 | 0.00 | 0.00 | 63 | 951.9 |
| 20260503050210 | 17 | 34 | 4.8 | 8.0 | 0.00 | 0.00 | 0.00 | 63 | 951.9 |
| 20260503050109 | 17 | 15 | 4.8 | 8.0 | 0.00 | 0.00 | 0.00 | 63 | 951.9 |
| 20260503050011 | 17 | 36 | 4.8 | 8.0 | 0.00 | 0.00 | 0.00 | 63 | 951.9 |
| 20260503045910 | 17 | 19 | 4.8 | 8.0 | 0.00 | 0.00 | 0.00 | 63 | 951.9 |
| 20260503045810 | 17 | 33 | 4.8 | 8.0 | 0.00 | 0.00 | 0.00 | 63 | 951.8 |
| 20260503045710 | 17 | 15 | 4.8 | 8.0 | 0.00 | 0.00 | 0.00 | 63 | 951.8 |
| 20260503045610 | 17 | 5 | 6.4 | 8.0 | 0.00 | 0.00 | 0.00 | 63 | 951.8 |
| 20260503045510 | 17 | 42 | 6.4 | 8.0 | 0.00 | 0.00 | 0.00 | 63 | 951.8 |
| 20260503045410 | 17 | 46 | 6.4 | 8.0 | 0.00 | 0.00 | 0.00 | 63 | 951.8 |
| 20260503045310 | 17 | 52 | 6.4 | 8.0 | 0.00 | 0.00 | 0.00 | 63 | 951.7 |
| 20260503045210 | 17 | 43 | 4.8 | 6.4 | 0.00 | 0.00 | 0.00 | 63 | 951.7 |
| 20260503045110 | 17 | 30 | 4.8 | 6.4 | 0.00 | 0.00 | 0.00 | 63 | 951.7 |
| 20260503045010 | 17 | 51 | 4.8 | 6.4 | 0.00 | 0.00 | 0.00 | 63 | 951.7 |
| 20260503044909 | 17 | 26 | 4.8 | 6.4 | 0.00 | 0.00 | 0.00 | 63 | 951.7 |
| 20260503044810 | 17 | 38 | 4.8 | 6.4 | 0.00 | 0.00 | 0.00 | 63 | 951.7 |
| 20260503044710 | 17 | 39 | 3.2 | 6.4 | 0.00 | 0.00 | 0.00 | 63 | 951.7 |
| 20260503044610 | 17 | 19 | 3.2 | 6.4 | 0.00 | 0.00 | 0.00 | 63 | 951.7 |
| 20260503044510 | 17 | 56 | 3.2 | 6.4 | 0.00 | 0.00 | 0.00 | 63 | 951.7 |
| 20260503044410 | 17 | 48 | 3.2 | 6.4 | 0.00 | 0.00 | 0.00 | 63 | 951.7 |
| 20260503044310 | 17 | 45 | 3.2 | 6.4 | 0.00 | 0.00 | 0.00 | 63 | 951.7 |
| 20260503044210 | 17 | 65 | 3.2 | 6.4 | 0.00 | 0.00 | 0.00 | 63 | 951.7 |
| 20260503044110 | 17 | 41 | 3.2 | 6.4 | 0.00 | 0.00 | 0.00 | 63 | 951.7 |
| 20260503044011 | 17 | 67 | 3.2 | 6.4 | 0.00 | 0.00 | 0.00 | 63 | 951.7 |
| 20260503043910 | 17 | 77 | 3.2 | 6.4 | 0.00 | 0.00 | 0.00 | 63 | 951.7 |
| 20260503043810 | 17 | 31 | 3.2 | 6.4 | 0.00 | 0.00 | 0.00 | 63 | 951.8 |
| 20260503043656 | 17 | 50 | 3.2 | 6.4 | 0.00 | 0.00 | 0.00 | 63 | 951.8 |
| 20260503043557 | 17 | 59 | 3.2 | 6.4 | 0.00 | 0.00 | 0.00 | 63 | 951.8 |
| 20260503043457 | 17 | 68 | 3.2 | 6.4 | 0.00 | 0.00 | 0.00 | 63 | 951.7 |
| 20260503043357 | 17 | 33 | 3.2 | 6.4 | 0.00 | 0.00 | 0.00 | 62 | 951.7 |
| 20260503043256 | 17 | 74 | 3.2 | 6.4 | 0.00 | 0.00 | 0.00 | 62 | 951.7 |
| 20260503043157 | 17 | 46 | 3.2 | 6.4 | 0.00 | 0.00 | 0.00 | 62 | 951.7 |
| 20260503043057 | 17 | 25 | 3.2 | 6.4 | 0.00 | 0.00 | 0.00 | 62 | 951.7 |
| 20260503042957 | 17 | 77 | 3.2 | 6.4 | 0.00 | 0.00 | 0.00 | 62 | 951.8 |
| 20260503042856 | 17 | 74 | 3.2 | 6.4 | 0.00 | 0.00 | 0.00 | 62 | 951.8 |
| 20260503042756 | 17 | 70 | 3.2 | 6.4 | 0.00 | 0.00 | 0.00 | 62 | 951.8 |
| 20260503042642 | 17 | 34 | 3.2 | 6.4 | 0.00 | 0.00 | 0.00 | 61 | 951.8 |
| 20260503042542 | 17 | 33 | 3.2 | 6.4 | 0.00 | 0.00 | 0.00 | 61 | 951.8 |
| 20260503042442 | 17 | 51 | 3.2 | 6.4 | 0.00 | 0.00 | 0.00 | 61 | 951.8 |
| 20260503042343 | 17 | 333 | 3.2 | 6.4 | 0.00 | 0.00 | 0.00 | 61 | 951.8 |
| 20260503042241 | 17 | 65 | 3.2 | 6.4 | 0.00 | 0.00 | 0.00 | 61 | 951.9 |
| 20260503042128 | 18 | 40 | 3.2 | 6.4 | 0.00 | 0.00 | 0.00 | 61 | 951.9 |
| 20260503042027 | 18 | 48 | 4.8 | 6.4 | 0.00 | 0.00 | 0.00 | 61 | 951.9 |
| 20260503041927 | 18 | 68 | 3.2 | 6.4 | 0.00 | 0.00 | 0.00 | 60 | 951.9 |
| 20260503041827 | 18 | 54 | 3.2 | 6.4 | 0.00 | 0.00 | 0.00 | 60 | 952.0 |
| 20260503041728 | 18 | 26 | 3.2 | 6.4 | 0.00 | 0.00 | 0.00 | 60 | 951.9 |
| 20260503041627 | 18 | 27 | 3.2 | 6.4 | 0.00 | 0.00 | 0.00 | 60 | 952.0 |
| 20260503041527 | 18 | 66 | 3.2 | 6.4 | 0.00 | 0.00 | 0.00 | 60 | 951.9 |
| 20260503041426 | 18 | 33 | 3.2 | 6.4 | 0.00 | 0.00 | 0.00 | 60 | 951.9 |
| 20260503041327 | 18 | 52 | 3.2 | 6.4 | 0.00 | 0.00 | 0.00 | 60 | 951.9 |
| 20260503041227 | 18 | 53 | 3.2 | 9.7 | 0.00 | 0.00 | 0.00 | 60 | 952.0 |
| 20260503041127 | 18 | 71 | 4.8 | 9.7 | 0.00 | 0.00 | 0.00 | 60 | 951.9 |
| 20260503041028 | 18 | 40 | 4.8 | 9.7 | 0.00 | 0.00 | 0.00 | 60 | 951.9 |
| 20260503040928 | 18 | 20 | 4.8 | 9.7 | 0.00 | 0.00 | 0.00 | 60 | 951.9 |
| 20260503040827 | 18 | 303 | 4.8 | 9.7 | 0.00 | 0.00 | 0.00 | 60 | 951.9 |
| 20260503040712 | 18 | 35 | 4.8 | 9.7 | 0.00 | 0.00 | 0.00 | 60 | 951.9 |
| 20260503040613 | 18 | 92 | 6.4 | 9.7 | 0.00 | 0.00 | 0.00 | 59 | 951.9 |
| 20260503040512 | 18 | 51 | 6.4 | 9.7 | 0.00 | 0.00 | 0.00 | 59 | 951.9 |
| 20260503040413 | 18 | 47 | 6.4 | 9.7 | 0.00 | 0.00 | 0.00 | 59 | 951.9 |
| 20260503040312 | 18 | 81 | 6.4 | 9.7 | 0.00 | 0.00 | 0.00 | 59 | 951.9 |
| 20260503040212 | 18 | 40 | 4.8 | 9.7 | 0.00 | 0.00 | 0.00 | 59 | 951.9 |
| 20260503040109 | 18 | 60 | 4.8 | 9.7 | 0.00 | 0.00 | 0.00 | 59 | 951.9 |
| 20260503040011 | 18 | 64 | 4.8 | 8.0 | 0.00 | 0.00 | 0.00 | 59 | 951.9 |
| 20260503035913 | 18 | 27 | 4.8 | 6.4 | 0.00 | 0.00 | 0.00 | 59 | 951.9 |
| 20260503035811 | 18 | 56 | 4.8 | 6.4 | 0.00 | 0.00 | 0.00 | 59 | 951.9 |
| 20260503035710 | 18 | 41 | 4.8 | 6.4 | 0.00 | 0.00 | 0.00 | 59 | 951.9 |
| 20260503035611 | 18 | 54 | 4.8 | 6.4 | 0.00 | 0.00 | 0.00 | 59 | 951.9 |
| 20260503035511 | 18 | 33 | 4.8 | 6.4 | 0.00 | 0.00 | 0.00 | 59 | 951.9 |
| 20260503035411 | 18 | 68 | 4.8 | 6.4 | 0.00 | 0.00 | 0.00 | 59 | 951.8 |
| 20260503035310 | 18 | 38 | 4.8 | 6.4 | 0.00 | 0.00 | 0.00 | 59 | 951.9 |
| 20260503035211 | 18 | 65 | 3.2 | 6.4 | 0.00 | 0.00 | 0.00 | 59 | 951.8 |
| 20260503035111 | 18 | 78 | 3.2 | 6.4 | 0.00 | 0.00 | 0.00 | 59 | 951.8 |
| 20260503035011 | 18 | 32 | 3.2 | 6.4 | 0.00 | 0.00 | 0.00 | 59 | 951.8 |
| 20260503034911 | 18 | 57 | 3.2 | 6.4 | 0.00 | 0.00 | 0.00 | 59 | 951.8 |
| 20260503034811 | 18 | 69 | 3.2 | 6.4 | 0.00 | 0.00 | 0.00 | 59 | 951.8 |
| 20260503034710 | 18 | 27 | 3.2 | 6.4 | 0.00 | 0.00 | 0.00 | 60 | 951.8 |
| 20260503034611 | 18 | 57 | 3.2 | 6.4 | 0.00 | 0.00 | 0.00 | 60 | 951.8 |
| 20260503034512 | 18 | 17 | 3.2 | 6.4 | 0.00 | 0.00 | 0.00 | 59 | 951.8 |
| 20260503034411 | 18 | 17 | 3.2 | 6.4 | 0.00 | 0.00 | 0.00 | 59 | 951.8 |
| 20260503034311 | 18 | 79 | 3.2 | 6.4 | 0.00 | 0.00 | 0.00 | 59 | 951.7 |
| 20260503034212 | 18 | 27 | 3.2 | 6.4 | 0.00 | 0.00 | 0.00 | 59 | 951.7 |
| 20260503034111 | 18 | 18 | 3.2 | 6.4 | 0.00 | 0.00 | 0.00 | 59 | 951.7 |
| 20260503034011 | 18 | 61 | 3.2 | 6.4 | 0.00 | 0.00 | 0.00 | 59 | 951.7 |
| 20260503033911 | 18 | 67 | 3.2 | 6.4 | 0.00 | 0.00 | 0.00 | 59 | 951.7 |
| 20260503033812 | 18 | 87 | 3.2 | 6.4 | 0.00 | 0.00 | 0.00 | 59 | 951.7 |
| 20260503033711 | 18 | 45 | 3.2 | 6.4 | 0.00 | 0.00 | 0.00 | 59 | 951.7 |
| 20260503033611 | 18 | 53 | 3.2 | 6.4 | 0.00 | 0.00 | 0.00 | 59 | 951.7 |
| 20260503033511 | 18 | 58 | 3.2 | 6.4 | 0.00 | 0.00 | 0.00 | 59 | 951.7 |
| 20260503033411 | 18 | 62 | 3.2 | 6.4 | 0.00 | 0.00 | 0.00 | 59 | 951.7 |
| 20260503033311 | 18 | 117 | 3.2 | 6.4 | 0.00 | 0.00 | 0.00 | 59 | 951.7 |
| 20260503033211 | 18 | 56 | 3.2 | 6.4 | 0.00 | 0.00 | 0.00 | 60 | 951.7 |
| 20260503033112 | 18 | 57 | 3.2 | 6.4 | 0.00 | 0.00 | 0.00 | 59 | 951.7 |
| 20260503033011 | 18 | 43 | 3.2 | 6.4 | 0.00 | 0.00 | 0.00 | 60 | 951.7 |
| 20260503032911 | 18 | 71 | 3.2 | 6.4 | 0.00 | 0.00 | 0.00 | 59 | 951.7 |
| 20260503032811 | 18 | 74 | 3.2 | 6.4 | 0.00 | 0.00 | 0.00 | 59 | 951.7 |
| 20260503032711 | 18 | 68 | 3.2 | 6.4 | 0.00 | 0.00 | 0.00 | 59 | 951.7 |
| 20260503032612 | 18 | 353 | 3.2 | 6.4 | 0.00 | 0.00 | 0.00 | 59 | 951.7 |
| 20260503032512 | 18 | 18 | 3.2 | 6.4 | 0.00 | 0.00 | 0.00 | 59 | 951.7 |
| 20260503032412 | 18 | 54 | 3.2 | 6.4 | 0.00 | 0.00 | 0.00 | 59 | 951.7 |
| 20260503032311 | 18 | 38 | 3.2 | 6.4 | 0.00 | 0.00 | 0.00 | 59 | 951.7 |
| 20260503032158 | 18 | 44 | 3.2 | 6.4 | 0.00 | 0.00 | 0.00 | 59 | 951.8 |
| 20260503032058 | 18 | 351 | 3.2 | 6.4 | 0.00 | 0.00 | 0.00 | 59 | 951.8 |
| 20260503031959 | 18 | 46 | 3.2 | 6.4 | 0.00 | 0.00 | 0.00 | 59 | 951.8 |
| 20260503031859 | 18 | 82 | 3.2 | 6.4 | 0.00 | 0.00 | 0.00 | 59 | 951.8 |
| 20260503031758 | 18 | 50 | 3.2 | 6.4 | 0.00 | 0.00 | 0.00 | 59 | 951.7 |
| 20260503031658 | 18 | 73 | 3.2 | 6.4 | 0.00 | 0.00 | 0.00 | 58 | 951.7 |
| 20260503031557 | 18 | 47 | 3.2 | 6.4 | 0.00 | 0.00 | 0.00 | 58 | 951.7 |
| 20260503031458 | 18 | 52 | 3.2 | 6.4 | 0.00 | 0.00 | 0.00 | 58 | 951.7 |
| 20260503031358 | 18 | 65 | 3.2 | 6.4 | 0.00 | 0.00 | 0.00 | 58 | 951.7 |
| 20260503031259 | 18 | 55 | 3.2 | 6.4 | 0.00 | 0.00 | 0.00 | 58 | 951.6 |
| 20260503031159 | 18 | 53 | 3.2 | 6.4 | 0.00 | 0.00 | 0.00 | 58 | 951.6 |
| 20260503031058 | 18 | 53 | 3.2 | 6.4 | 0.00 | 0.00 | 0.00 | 58 | 951.6 |
| 20260503030958 | 18 | 93 | 3.2 | 6.4 | 0.00 | 0.00 | 0.00 | 58 | 951.6 |
| 20260503030858 | 18 | 53 | 3.2 | 6.4 | 0.00 | 0.00 | 0.00 | 58 | 951.5 |
| 20260503030758 | 18 | 55 | 3.2 | 6.4 | 0.00 | 0.00 | 0.00 | 58 | 951.6 |
| 20260503030658 | 18 | 65 | 3.2 | 6.4 | 0.00 | 0.00 | 0.00 | 57 | 951.5 |
| 20260503030559 | 19 | 354 | 3.2 | 8.0 | 0.00 | 0.00 | 0.00 | 57 | 951.5 |
| 20260503030458 | 19 | 54 | 3.2 | 8.0 | 0.00 | 0.00 | 0.00 | 57 | 951.5 |
| 20260503030358 | 19 | 63 | 4.8 | 8.0 | 0.00 | 0.00 | 0.00 | 57 | 951.5 |
| 20260503030258 | 19 | 50 | 4.8 | 8.0 | 0.00 | 0.00 | 0.00 | 57 | 951.5 |
| 20260503030159 | 19 | 70 | 4.8 | 8.0 | 0.00 | 0.00 | 0.00 | 57 | 951.5 |
| 20260503030058 | 19 | 69 | 4.8 | 8.0 | 0.00 | 0.00 | 0.00 | 57 | 951.5 |
| 20260503025958 | 19 | 35 | 4.8 | 9.7 | 0.00 | 0.00 | 0.00 | 57 | 951.5 |
| 20260503025858 | 19 | 38 | 4.8 | 9.7 | 0.00 | 0.00 | 0.00 | 56 | 951.4 |
| 20260503025759 | 19 | 69 | 4.8 | 9.7 | 0.00 | 0.00 | 0.00 | 56 | 951.4 |
| 20260503025658 | 19 | 12 | 4.8 | 9.7 | 0.00 | 0.00 | 0.00 | 56 | 951.4 |
| 20260503025559 | 19 | 54 | 4.8 | 9.7 | 0.00 | 0.00 | 0.00 | 56 | 951.4 |
| 20260503025450 | 19 | 59 | 4.8 | 9.7 | 0.00 | 0.00 | 0.00 | 56 | 951.4 |
| 20260503025349 | 19 | 47 | 4.8 | 9.7 | 0.00 | 0.00 | 0.00 | 56 | 951.4 |
| 20260503025250 | 19 | 42 | 4.8 | 9.7 | 0.00 | 0.00 | 0.00 | 56 | 951.3 |
| 20260503025149 | 19 | 59 | 4.8 | 9.7 | 0.00 | 0.00 | 0.00 | 56 | 951.3 |
| 20260503025050 | 19 | 42 | 4.8 | 9.7 | 0.00 | 0.00 | 0.00 | 55 | 951.3 |
| 20260503024950 | 19 | 69 | 4.8 | 9.7 | 0.00 | 0.00 | 0.00 | 55 | 951.2 |
| 20260503024850 | 19 | 39 | 4.8 | 9.7 | 0.00 | 0.00 | 0.00 | 55 | 951.2 |
| 20260503024750 | 19 | 70 | 4.8 | 9.7 | 0.00 | 0.00 | 0.00 | 55 | 951.2 |
| 20260503024644 | 19 | 40 | 4.8 | 11.3 | 0.00 | 0.00 | 0.00 | 55 | 951.2 |
| 20260503024543 | 19 | 48 | 4.8 | 12.9 | 0.00 | 0.00 | 0.00 | 55 | 951.2 |
| 20260503024443 | 19 | 56 | 4.8 | 12.9 | 0.00 | 0.00 | 0.00 | 55 | 951.1 |
| 20260503024332 | 19 | 20 | 6.4 | 12.9 | 0.00 | 0.00 | 0.00 | 55 | 951.1 |
| 20260503024232 | 19 | 56 | 6.4 | 12.9 | 0.00 | 0.00 | 0.00 | 54 | 951.1 |
| 20260503024132 | 19 | 82 | 6.4 | 12.9 | 0.00 | 0.00 | 0.00 | 54 | 951.1 |
| 20260503024031 | 19 | 37 | 6.4 | 12.9 | 0.00 | 0.00 | 0.00 | 54 | 951.0 |
| 20260503023926 | 19 | 39 | 6.4 | 12.9 | 0.00 | 0.00 | 0.00 | 54 | 951.0 |
| 20260503023820 | 19 | 78 | 6.4 | 12.9 | 0.00 | 0.00 | 0.00 | 54 | 951.1 |
| 20260503023720 | 19 | 81 | 6.4 | 12.9 | 0.00 | 0.00 | 0.00 | 54 | 951.0 |
| 20260503023620 | 19 | 74 | 6.4 | 12.9 | 0.00 | 0.00 | 0.00 | 54 | 951.0 |
| 20260503023519 | 19 | 54 | 6.4 | 9.7 | 0.00 | 0.00 | 0.00 | 54 | 951.0 |
| 20260503023420 | 19 | 69 | 6.4 | 9.7 | 0.00 | 0.00 | 0.00 | 54 | 951.0 |
| 20260503023320 | 19 | 49 | 4.8 | 9.7 | 0.00 | 0.00 | 0.00 | 54 | 951.1 |
| 20260503023220 | 19 | 43 | 4.8 | 9.7 | 0.00 | 0.00 | 0.00 | 54 | 951.1 |
| 20260503023112 | 19 | 70 | 4.8 | 8.0 | 0.00 | 0.00 | 0.00 | 54 | 951.0 |
| 20260503023013 | 19 | 61 | 4.8 | 9.7 | 0.00 | 0.00 | 0.00 | 55 | 951.0 |
| 20260503022913 | 19 | 58 | 4.8 | 9.7 | 0.00 | 0.00 | 0.00 | 55 | 951.0 |
| 20260503022813 | 19 | 242 | 4.8 | 9.7 | 0.00 | 0.00 | 0.00 | 55 | 951.0 |
| 20260503022713 | 19 | 98 | 4.8 | 9.7 | 0.00 | 0.00 | 0.00 | 55 | 951.0 |
| 20260503022611 | 20 | 9 | 4.8 | 9.7 | 0.00 | 0.00 | 0.00 | 55 | 951.0 |
| 20260503022511 | 20 | 88 | 4.8 | 9.7 | 0.00 | 0.00 | 0.00 | 55 | 951.0 |
| 20260503022411 | 20 | 157 | 4.8 | 9.7 | 0.00 | 0.00 | 0.00 | 55 | 951.0 |
| 20260503022311 | 20 | 90 | 4.8 | 9.7 | 0.00 | 0.00 | 0.00 | 54 | 951.0 |
| 20260503022211 | 20 | 72 | 4.8 | 9.7 | 0.00 | 0.00 | 0.00 | 54 | 951.0 |
| 20260503022111 | 20 | 87 | 4.8 | 9.7 | 0.00 | 0.00 | 0.00 | 54 | 951.0 |
| 20260503022011 | 20 | 83 | 4.8 | 9.7 | 0.00 | 0.00 | 0.00 | 54 | 951.0 |
| 20260503021911 | 20 | 63 | 4.8 | 9.7 | 0.00 | 0.00 | 0.00 | 53 | 951.0 |
| 20260503021812 | 20 | 84 | 4.8 | 9.7 | 0.00 | 0.00 | 0.00 | 53 | 951.0 |
| 20260503021711 | 20 | 53 | 4.8 | 9.7 | 0.00 | 0.00 | 0.00 | 53 | 951.0 |
| 20260503021611 | 20 | 69 | 4.8 | 9.7 | 0.00 | 0.00 | 0.00 | 53 | 950.9 |
| 20260503021511 | 20 | 51 | 4.8 | 9.7 | 0.00 | 0.00 | 0.00 | 53 | 950.9 |
| 20260503021412 | 20 | 39 | 6.4 | 9.7 | 0.00 | 0.00 | 0.00 | 53 | 950.9 |
| 20260503021311 | 20 | 64 | 6.4 | 9.7 | 0.00 | 0.00 | 0.00 | 53 | 950.9 |
| 20260503021212 | 20 | 44 | 6.4 | 12.9 | 0.00 | 0.00 | 0.00 | 53 | 950.9 |
| 20260503021111 | 20 | 44 | 6.4 | 12.9 | 0.00 | 0.00 | 0.00 | 53 | 950.9 |
| 20260503021011 | 20 | 83 | 6.4 | 12.9 | 0.00 | 0.00 | 0.00 | 53 | 950.9 |
| 20260503020911 | 20 | 7 | 6.4 | 12.9 | 0.00 | 0.00 | 0.00 | 53 | 950.9 |
| 20260503020811 | 20 | 36 | 6.4 | 12.9 | 0.00 | 0.00 | 0.00 | 53 | 950.9 |
| 20260503020712 | 20 | 24 | 6.4 | 12.9 | 0.00 | 0.00 | 0.00 | 53 | 950.8 |
| 20260503020611 | 20 | 41 | 6.4 | 12.9 | 0.00 | 0.00 | 0.00 | 53 | 950.8 |
| 20260503020511 | 20 | 53 | 6.4 | 12.9 | 0.00 | 0.00 | 0.00 | 53 | 950.8 |
| 20260503020412 | 20 | 60 | 6.4 | 12.9 | 0.00 | 0.00 | 0.00 | 53 | 950.8 |
| 20260503020311 | 20 | 61 | 6.4 | 14.5 | 0.00 | 0.00 | 0.00 | 53 | 950.8 |
| 20260503020212 | 20 | 52 | 6.4 | 14.5 | 0.00 | 0.00 | 0.00 | 53 | 950.8 |
| 20260503020112 | 20 | 45 | 6.4 | 14.5 | 0.00 | 0.00 | 0.00 | 53 | 950.8 |
| 20260503020007 | 20 | 54 | 4.8 | 14.5 | 0.00 | 0.00 | 0.00 | 53 | 950.7 |
| 20260503015907 | 20 | 79 | 6.4 | 14.5 | 0.00 | 0.00 | 0.00 | 53 | 950.7 |
| 20260503015806 | 20 | 37 | 6.4 | 14.5 | 0.00 | 0.00 | 0.00 | 53 | 950.7 |
| 20260503015706 | 20 | 40 | 6.4 | 14.5 | 0.00 | 0.00 | 0.00 | 53 | 950.8 |
| 20260503015605 | 20 | 87 | 6.4 | 14.5 | 0.00 | 0.00 | 0.00 | 53 | 950.8 |
| 20260503015501 | 20 | 37 | 6.4 | 14.5 | 0.00 | 0.00 | 0.00 | 53 | 950.8 |
| 20260503015402 | 20 | 63 | 6.4 | 14.5 | 0.00 | 0.00 | 0.00 | 53 | 950.7 |
| 20260503015300 | 20 | 61 | 6.4 | 12.9 | 0.00 | 0.00 | 0.00 | 53 | 950.8 |
| 20260503015200 | 20 | 42 | 6.4 | 12.9 | 0.00 | 0.00 | 0.00 | 53 | 950.8 |
| 20260503015055 | 20 | 5 | 6.4 | 12.9 | 0.00 | 0.00 | 0.00 | 53 | 950.8 |
| 20260503014956 | 20 | 135 | 6.4 | 12.9 | 0.00 | 0.00 | 0.00 | 53 | 950.8 |
| 20260503014855 | 20 | 62 | 6.4 | 12.9 | 0.00 | 0.00 | 0.00 | 53 | 950.7 |
| 20260503014755 | 20 | 62 | 6.4 | 11.3 | 0.00 | 0.00 | 0.00 | 53 | 950.7 |
| 20260503014655 | 20 | 83 | 6.4 | 11.3 | 0.00 | 0.00 | 0.00 | 53 | 950.7 |
| 20260503014556 | 20 | 75 | 6.4 | 11.3 | 0.00 | 0.00 | 0.00 | 53 | 950.7 |
| 20260503014455 | 20 | 45 | 6.4 | 11.3 | 0.00 | 0.00 | 0.00 | 53 | 950.7 |
| 20260503014354 | 20 | 64 | 6.4 | 11.3 | 0.00 | 0.00 | 0.00 | 53 | 950.7 |
| 20260503014254 | 20 | 69 | 4.8 | 11.3 | 0.00 | 0.00 | 0.00 | 53 | 950.7 |
| 20260503014155 | 20 | 33 | 6.4 | 11.3 | 0.00 | 0.00 | 0.00 | 53 | 950.7 |
| 20260503014054 | 20 | 78 | 6.4 | 11.3 | 0.00 | 0.00 | 0.00 | 53 | 950.8 |
| 20260503013955 | 20 | 30 | 4.8 | 11.3 | 0.00 | 0.00 | 0.00 | 53 | 950.8 |
| 20260503013854 | 20 | 71 | 6.4 | 11.3 | 0.00 | 0.00 | 0.00 | 53 | 950.8 |
| 20260503013754 | 20 | 60 | 6.4 | 11.3 | 0.00 | 0.00 | 0.00 | 53 | 950.8 |
| 20260503013654 | 20 | 65 | 6.4 | 11.3 | 0.00 | 0.00 | 0.00 | 53 | 950.8 |
| 20260503013554 | 20 | 81 | 6.4 | 12.9 | 0.00 | 0.00 | 0.00 | 53 | 950.8 |
| 20260503013454 | 20 | 63 | 6.4 | 12.9 | 0.00 | 0.00 | 0.00 | 53 | 950.8 |
| 20260503013350 | 20 | 50 | 6.4 | 12.9 | 0.00 | 0.00 | 0.00 | 52 | 950.8 |
| 20260503013250 | 20 | 3 | 6.4 | 12.9 | 0.00 | 0.00 | 0.00 | 52 | 950.8 |
| 20260503013150 | 20 | 60 | 6.4 | 12.9 | 0.00 | 0.00 | 0.00 | 53 | 950.8 |
| 20260503013050 | 20 | 65 | 6.4 | 12.9 | 0.00 | 0.00 | 0.00 | 52 | 950.8 |
| 20260503012950 | 20 | 38 | 6.4 | 12.9 | 0.00 | 0.00 | 0.00 | 52 | 950.7 |
| 20260503012850 | 20 | 65 | 6.4 | 12.9 | 0.00 | 0.00 | 0.00 | 52 | 950.8 |
| 20260503012750 | 20 | 73 | 6.4 | 12.9 | 0.00 | 0.00 | 0.00 | 52 | 950.8 |
| 20260503012650 | 20 | 59 | 6.4 | 12.9 | 0.00 | 0.00 | 0.00 | 52 | 950.8 |
| 20260503012550 | 20 | 62 | 6.4 | 12.9 | 0.00 | 0.00 | 0.00 | 53 | 950.8 |
| 20260503012450 | 20 | 53 | 4.8 | 12.9 | 0.00 | 0.00 | 0.00 | 53 | 950.8 |
| 20260503012350 | 20 | 71 | 4.8 | 11.3 | 0.00 | 0.00 | 0.00 | 53 | 950.8 |
| 20260503012250 | 20 | 81 | 4.8 | 11.3 | 0.00 | 0.00 | 0.00 | 53 | 950.8 |
| 20260503012150 | 20 | 69 | 4.8 | 11.3 | 0.00 | 0.00 | 0.00 | 53 | 950.8 |
| 20260503012050 | 20 | 66 | 4.8 | 9.7 | 0.00 | 0.00 | 0.00 | 53 | 950.7 |
| 20260503011950 | 20 | 38 | 4.8 | 9.7 | 0.00 | 0.00 | 0.00 | 53 | 950.7 |
| 20260503011851 | 20 | 59 | 4.8 | 11.3 | 0.00 | 0.00 | 0.00 | 53 | 950.7 |
| 20260503011750 | 20 | 51 | 6.4 | 12.9 | 0.00 | 0.00 | 0.00 | 53 | 950.7 |
| 20260503011650 | 20 | 31 | 6.4 | 12.9 | 0.00 | 0.00 | 0.00 | 53 | 950.6 |
| 20260503011550 | 20 | 55 | 6.4 | 12.9 | 0.00 | 0.00 | 0.00 | 53 | 950.6 |
| 20260503011451 | 20 | 83 | 6.4 | 12.9 | 0.00 | 0.00 | 0.00 | 53 | 950.6 |
| 20260503011350 | 20 | 30 | 6.4 | 12.9 | 0.00 | 0.00 | 0.00 | 53 | 950.6 |
| 20260503011250 | 20 | 54 | 6.4 | 12.9 | 0.00 | 0.00 | 0.00 | 53 | 950.5 |
| 20260503011150 | 20 | 43 | 6.4 | 12.9 | 0.00 | 0.00 | 0.00 | 52 | 950.5 |
| 20260503011051 | 20 | 49 | 6.4 | 14.5 | 0.00 | 0.00 | 0.00 | 53 | 950.5 |
| 20260503010950 | 20 | 34 | 6.4 | 14.5 | 0.00 | 0.00 | 0.00 | 53 | 950.5 |
| 20260503010851 | 20 | 49 | 6.4 | 14.5 | 0.00 | 0.00 | 0.00 | 53 | 950.5 |
| 20260503010750 | 20 | 33 | 6.4 | 14.5 | 0.00 | 0.00 | 0.00 | 53 | 950.5 |
| 20260503010650 | 20 | 45 | 8.0 | 14.5 | 0.00 | 0.00 | 0.00 | 53 | 950.5 |
| 20260503010548 | 20 | 41 | 8.0 | 14.5 | 0.00 | 0.00 | 0.00 | 53 | 950.4 |
| 20260503010449 | 20 | 44 | 6.4 | 14.5 | 0.00 | 0.00 | 0.00 | 53 | 950.4 |
| 20260503010348 | 20 | 50 | 8.0 | 14.5 | 0.00 | 0.00 | 0.00 | 53 | 950.4 |
| 20260503010249 | 20 | 71 | 8.0 | 14.5 | 0.00 | 0.00 | 0.00 | 53 | 950.4 |
| 20260503010148 | 20 | 53 | 8.0 | 14.5 | 0.00 | 0.00 | 0.00 | 53 | 950.3 |
| 20260503010049 | 20 | 62 | 8.0 | 14.5 | 0.00 | 0.00 | 0.00 | 53 | 950.4 |
| 20260503005948 | 20 | 80 | 8.0 | 14.5 | 0.00 | 0.00 | 0.00 | 52 | 950.4 |
| 20260503005844 | 20 | 71 | 8.0 | 14.5 | 0.00 | 0.00 | 0.00 | 52 | 950.3 |
| 20260503005743 | 20 | 47 | 8.0 | 14.5 | 0.00 | 0.00 | 0.00 | 53 | 950.3 |
| 20260503005643 | 20 | 23 | 8.0 | 14.5 | 0.00 | 0.00 | 0.00 | 53 | 950.3 |
| 20260503005539 | 20 | 90 | 8.0 | 14.5 | 0.00 | 0.00 | 0.00 | 53 | 950.3 |
| 20260503005438 | 20 | 78 | 8.0 | 14.5 | 0.00 | 0.00 | 0.00 | 53 | 950.3 |
| 20260503005339 | 20 | 70 | 8.0 | 14.5 | 0.00 | 0.00 | 0.00 | 53 | 950.3 |
| 20260503005238 | 20 | 63 | 8.0 | 14.5 | 0.00 | 0.00 | 0.00 | 52 | 950.3 |
| 20260503005139 | 20 | 59 | 8.0 | 14.5 | 0.00 | 0.00 | 0.00 | 52 | 950.3 |
| 20260503005038 | 20 | 59 | 8.0 | 14.5 | 0.00 | 0.00 | 0.00 | 52 | 950.3 |
| 20260503004939 | 20 | 45 | 8.0 | 14.5 | 0.00 | 0.00 | 0.00 | 52 | 950.3 |
| 20260503004839 | 20 | 47 | 8.0 | 14.5 | 0.00 | 0.00 | 0.00 | 53 | 950.3 |
| 20260503004739 | 20 | 62 | 8.0 | 14.5 | 0.00 | 0.00 | 0.00 | 52 | 950.3 |
| 20260503004638 | 20 | 22 | 8.0 | 14.5 | 0.00 | 0.00 | 0.00 | 53 | 950.3 |
| 20260503004539 | 20 | 55 | 8.0 | 14.5 | 0.00 | 0.00 | 0.00 | 52 | 950.3 |
| 20260503004439 | 20 | 61 | 8.0 | 14.5 | 0.00 | 0.00 | 0.00 | 52 | 950.2 |
| 20260503004338 | 20 | 56 | 8.0 | 14.5 | 0.00 | 0.00 | 0.00 | 53 | 950.2 |
| 20260503004238 | 20 | 37 | 9.7 | 14.5 | 0.00 | 0.00 | 0.00 | 53 | 950.2 |
| 20260503004139 | 20 | 58 | 9.7 | 14.5 | 0.00 | 0.00 | 0.00 | 53 | 950.2 |
| 20260503004039 | 20 | 63 | 8.0 | 14.5 | 0.00 | 0.00 | 0.00 | 53 | 950.2 |
| 20260503003938 | 20 | 36 | 8.0 | 14.5 | 0.00 | 0.00 | 0.00 | 53 | 950.2 |
| 20260503003839 | 20 | 41 | 8.0 | 14.5 | 0.00 | 0.00 | 0.00 | 52 | 950.1 |
| 20260503003739 | 21 | 77 | 8.0 | 14.5 | 0.00 | 0.00 | 0.00 | 53 | 950.1 |